M I D A S
Marine Information and Data Acquisition System
Tripno 1884 of the Zeeleeuw from 2010-05-18 07:04:42 to 2010-05-18 13:57:27
Back to CruiseResearch ActivitiesStationsMapUnderway DataData graphs

EquipmentUnitsComment
TimeDGPSUTC
LatitudeDGPSDM.mWGS84
LongitudeDGPSDM.mWGS84
TemperatureSBE03/SBE38deg celciusITS90
ConductivitySBE21S/mITS90
SalinitySBE21 Practical Salinity Units
ChlorophylAChelsea fluorimeterg/lCalibrated in Aceton
Missing or incorrect values are displayed as -999
Sea surface data collected by the RV Zeeleeuw from 2010-05-18 07:07:35 to 2010-05-18 14:02:46
                                                                                    Next 1000 lines
Time Latitude Longitude Temperature Conductivity Salinity ChlorophylA
2010-05-18 07:07:45 51°13.66 2°55.956 19.2828 0.063706 0.346273 -0.861272
2010-05-18 07:07:50 51°13.661 2°55.953 19.3628 0.063706 0.346273 -0.861272
2010-05-18 07:07:54 51°13.662 2°55.95 19.4435 0.063706 0.346279 -0.896096
2010-05-18 07:08:00 51°13.663 2°55.946 19.4482 0.063706 0.34629 -0.861272
2010-05-18 07:08:05 51°13.665 2°55.942 19.4277 0.063706 0.34629 -0.861272
2010-05-18 07:08:11 51°13.666 2°55.936 19.4766 0.063706 0.346301 -0.896096
2010-05-18 07:08:17 51°13.668 2°55.93 19.4896 0.063706 0.346301 -0.896096
2010-05-18 07:08:22 51°13.67 2°55.925 19.4831 0.063706 0.346301 -0.861272
2010-05-18 07:08:28 51°13.671 2°55.919 19.4805 0.063706 0.346312 -0.861272
2010-05-18 07:08:33 51°13.673 2°55.913 19.4786 0.063706 0.346323 -0.861272
2010-05-18 07:08:38 51°13.674 2°55.907 19.4794 0.063706 0.346334 -0.826448
2010-05-18 07:08:43 51°13.676 2°55.901 19.479 0.063706 0.346345 -0.861272
2010-05-18 07:08:49 51°13.678 2°55.893 19.4774 0.063706 0.346345 -0.861272
2010-05-18 07:08:53 51°13.679 2°55.887 19.4922 0.063706 0.346351 -0.826448
2010-05-18 07:08:58 51°13.681 2°55.88 19.5153 0.063706 0.346356 -0.861272
2010-05-18 07:09:03 51°13.682 2°55.873 19.5184 0.063706 0.346356 -0.861272
2010-05-18 07:09:08 51°13.684 2°55.866 19.5155 0.063706 0.346362 -0.896096
2010-05-18 07:09:13 51°13.685 2°55.859 19.5071 0.063706 0.346367 -0.861272
2010-05-18 07:09:19 51°13.687 2°55.85 19.5067 0.063706 0.346367 -0.861272
2010-05-18 07:09:23 51°13.688 2°55.844 19.5084 0.063706 0.346367 -0.861272
2010-05-18 07:09:28 51°13.689 2°55.837 19.5082 0.063706 0.346373 -0.896096
2010-05-18 07:09:33 51°13.69 2°55.829 19.5067 0.063706 0.346378 -0.896096
2010-05-18 07:09:39 51°13.692 2°55.82 19.5036 0.063706 0.346384 -0.826448
2010-05-18 07:09:44 51°13.693 2°55.812 19.5027 0.063706 0.346395 -0.861272
2010-05-18 07:09:48 51°13.694 2°55.806 19.4976 0.063706 0.346395 -0.861272
2010-05-18 07:09:53 51°13.695 2°55.798 19.4972 0.063706 0.346406 -0.861272
2010-05-18 07:09:59 51°13.696 2°55.789 19.4984 0.063706 0.346417 -0.861272
2010-05-18 07:10:04 51°13.697 2°55.782 19.4952 0.063706 0.346423 -0.826448
2010-05-18 07:10:09 51°13.697 2°55.775 19.4966 0.063706 0.346439 -0.861272
2010-05-18 07:10:13 51°13.698 2°55.769 19.4959 0.063706 0.346445 -0.896096
2010-05-18 07:10:18 51°13.698 2°55.763 19.4944 0.063706 0.346445 -0.896096
2010-05-18 07:10:24 51°13.698 2°55.755 19.4974 0.063706 0.346445 -0.896096
2010-05-18 07:10:28 51°13.699 2°55.751 19.4963 0.063706 0.346461 -0.861272
2010-05-18 07:10:33 51°13.699 2°55.747 19.5358 0.063602 0.345884 -0.861272
2010-05-18 07:10:37 51°13.699 2°55.745 19.4723 0.063706 0.346472 -0.861272
2010-05-18 07:10:42 51°13.699 2°55.742 19.5081 0.063706 0.346484 -0.861272
2010-05-18 07:10:48 51°13.7 2°55.74 19.4819 0.063706 0.346484 -0.861272
2010-05-18 07:10:53 51°13.7 2°55.739 19.5 0.063706 0.346495 -0.861272
2010-05-18 07:10:57 51°13.7 2°55.738 19.4974 0.063602 0.345917 -0.861272
2010-05-18 07:11:02 51°13.701 2°55.737 19.5069 0.063706 0.346511 -0.861272
2010-05-18 07:11:07 51°13.701 2°55.737 19.5059 0.063706 0.346517 -0.861272
2010-05-18 07:11:12 51°13.702 2°55.736 19.5117 0.063602 0.345934 -0.896096
2010-05-18 07:11:17 51°13.703 2°55.736 19.5109 0.063602 0.345934 -0.896096
2010-05-18 07:11:21 51°13.703 2°55.737 19.5141 0.063706 0.346522 -0.861272
2010-05-18 07:11:26 51°13.704 2°55.737 19.5157 0.063602 0.345945 -0.861272
2010-05-18 07:11:31 51°13.706 2°55.737 19.5168 0.063706 0.346533 -0.861272
2010-05-18 07:11:36 51°13.707 2°55.738 19.5223 0.063706 0.346545 -0.896096
2010-05-18 07:11:41 51°13.708 2°55.738 19.5229 0.063602 0.345967 -0.896096
2010-05-18 07:11:45 51°13.709 2°55.739 19.5238 0.063602 0.345967 -0.896096
2010-05-18 07:11:50 51°13.711 2°55.739 19.5249 0.063602 0.345972 -0.826448
2010-05-18 07:11:55 51°13.713 2°55.74 19.525 0.063602 0.345978 -0.861272
2010-05-18 07:12:00 51°13.715 2°55.74 19.524 0.063602 0.345995 -0.861272
2010-05-18 07:12:05 51°13.717 2°55.74 19.524 0.063602 0.346 -0.861272
2010-05-18 07:12:09 51°13.719 2°55.74 19.5252 0.063602 0.346011 -0.861272
2010-05-18 07:12:15 51°13.722 2°55.74 19.5338 0.063602 0.346011 -0.861272
2010-05-18 07:12:20 51°13.724 2°55.739 19.5414 0.063602 0.346022 -0.861272
2010-05-18 07:12:25 51°13.727 2°55.739 19.5414 0.063602 0.346039 -0.861272
2010-05-18 07:12:30 51°13.729 2°55.738 19.5373 0.063602 0.346044 -0.861272
2010-05-18 07:12:34 51°13.731 2°55.737 19.5485 0.063602 0.34605 -0.861272
2010-05-18 07:12:40 51°13.735 2°55.735 19.5778 0.063706 0.346639 -0.861272
2010-05-18 07:12:45 51°13.738 2°55.733 19.5867 0.063706 0.346639 -0.861272
2010-05-18 07:12:50 51°13.741 2°55.73 19.6163 0.063602 0.346067 -0.93092
2010-05-18 07:12:55 51°13.745 2°55.727 19.6096 0.063602 0.346078 -0.861272
2010-05-18 07:13:00 51°13.749 2°55.722 19.5882 0.063602 0.346078 -0.861272
2010-05-18 07:13:05 51°13.755 2°55.717 19.5645 0.063602 0.346083 -0.861272
2010-05-18 07:13:10 51°13.761 2°55.711 19.4958 0.063602 0.346089 -0.896096
2010-05-18 07:13:15 51°13.767 2°55.704 19.5163 0.063602 0.346089 -0.896096
2010-05-18 07:13:20 51°13.775 2°55.696 19.4613 0.063602 0.346094 -0.861272
2010-05-18 07:13:25 51°13.782 2°55.688 19.4196 0.063602 0.3461 -0.896096
2010-05-18 07:13:30 51°13.791 2°55.68 19.2946 0.063602 0.346105 -0.861272
2010-05-18 07:13:35 51°13.8 2°55.671 19.242 0.063602 0.346116 -0.861272
2010-05-18 07:13:40 51°13.809 2°55.661 19.2085 0.063602 0.346122 -0.861272
2010-05-18 07:13:45 51°13.818 2°55.652 19.1847 0.063602 0.346122 -0.861272
2010-05-18 07:13:49 51°13.826 2°55.645 19.1327 0.063602 0.346139 -0.861272
2010-05-18 07:13:55 51°13.839 2°55.634 19.0639 0.063602 0.346161 -0.896096
2010-05-18 07:14:00 51°13.85 2°55.626 19.0403 0.063602 0.346177 -0.896096
2010-05-18 07:14:05 51°13.861 2°55.618 19.1236 0.063602 0.346188 -0.861272
2010-05-18 07:14:10 51°13.872 2°55.61 19.2842 0.063602 0.3462 -0.861272
2010-05-18 07:14:15 51°13.883 2°55.602 19.287 0.063602 0.3462 -0.861272
2010-05-18 07:14:20 51°13.893 2°55.593 19.3572 0.063602 0.346227 -0.826448
2010-05-18 07:14:25 51°13.904 2°55.583 19.3148 0.063602 0.346233 -0.896096
2010-05-18 07:14:29 51°13.913 2°55.575 19.3345 0.063602 0.346249 -0.861272
2010-05-18 07:14:35 51°13.925 2°55.563 19.2836 0.063602 0.346249 -0.896096
2010-05-18 07:14:40 51°13.935 2°55.553 19.2497 0.063602 0.346249 -0.861272
2010-05-18 07:14:45 51°13.946 2°55.543 19.1129 0.063602 0.346249 -0.861272
2010-05-18 07:14:50 51°13.956 2°55.533 19.121 0.063602 0.346249 -0.861272
2010-05-18 07:14:54 51°13.965 2°55.526 19.2101 0.063602 0.346249 -0.896096
2010-05-18 07:15:00 51°13.978 2°55.515 19.2451 0.063602 0.346249 -0.896096
2010-05-18 07:15:05 51°13.989 2°55.506 19.2972 0.063602 0.346255 -0.861272
2010-05-18 07:15:10 51°14 2°55.497 19.3173 0.063602 0.346261 -0.861272
2010-05-18 07:15:15 51°14.01 2°55.488 19.3279 0.063602 0.346261 -0.861272
2010-05-18 07:15:20 51°14.021 2°55.479 19.3317 0.063602 0.346277 -0.861272
2010-05-18 07:15:25 51°14.032 2°55.47 19.3329 0.063602 0.346288 -0.861272
2010-05-18 07:15:30 51°14.043 2°55.461 19.32 0.063602 0.346305 -0.861272
2010-05-18 07:15:35 51°14.054 2°55.453 19.3581 0.063602 0.346322 -0.861272
2010-05-18 07:15:40 51°14.065 2°55.444 19.3742 0.063602 0.346338 -0.896096
2010-05-18 07:15:45 51°14.076 2°55.436 19.3871 0.063602 0.346338 -0.896096
2010-05-18 07:15:50 51°14.087 2°55.427 19.3939 0.063602 0.346355 -0.861272
2010-05-18 07:15:55 51°14.098 2°55.418 19.4172 0.063602 0.346371 -0.861272
2010-05-18 07:16:00 51°14.11 2°55.409 19.4146 0.063602 0.346383 -0.896096
2010-05-18 07:16:05 51°14.121 2°55.399 19.3677 0.063602 0.346399 -0.896096
2010-05-18 07:16:09 51°14.13 2°55.392 19.2858 0.063602 0.34641 -0.896096
2010-05-18 07:16:13 51°14.139 2°55.384 19.2864 0.063602 0.34641 -0.896096
2010-05-18 07:16:19 51°14.153 2°55.372 19.2682 0.063602 0.34641 -0.861272
2010-05-18 07:16:25 51°14.168 2°55.361 19.345 0.063602 0.346416 -0.861272
2010-05-18 07:16:30 51°14.18 2°55.351 19.3481 0.063602 0.346416 -0.861272
2010-05-18 07:16:34 51°14.19 2°55.343 19.3313 0.063602 0.346427 -0.861272
2010-05-18 07:16:40 51°14.205 2°55.331 19.3275 0.063602 0.346427 -0.861272
2010-05-18 07:16:45 51°14.218 2°55.32 19.4321 0.063602 0.346427 -0.861272
2010-05-18 07:16:50 51°14.231 2°55.309 19.4405 0.063602 0.346433 -0.861272
2010-05-18 07:16:54 51°14.241 2°55.3 19.3955 0.063602 0.346438 -0.896096
2010-05-18 07:17:00 51°14.257 2°55.285 19.3553 0.063602 0.346449 -0.861272
2010-05-18 07:17:05 51°14.27 2°55.272 19.3494 0.063602 0.346455 -0.896096
2010-05-18 07:17:10 51°14.283 2°55.259 19.3093 0.063602 0.34646 -0.896096
2010-05-18 07:17:14 51°14.294 2°55.248 19.3018 0.063602 0.34646 -0.896096
2010-05-18 07:17:20 51°14.311 2°55.231 19.2216 0.063602 0.346466 -0.861272
2010-05-18 07:17:25 51°14.325 2°55.217 19.2415 0.063602 0.346477 -0.861272
2010-05-18 07:17:30 51°14.339 2°55.202 19.2224 0.063602 0.346483 -0.826448
2010-05-18 07:17:35 51°14.353 2°55.187 19.1875 0.063602 0.346494 -0.861272
2010-05-18 07:17:40 51°14.367 2°55.172 19.1465 0.063602 0.346499 -0.826448
2010-05-18 07:17:45 51°14.382 2°55.156 19.0388 0.063602 0.346499 -0.826448
2010-05-18 07:17:50 51°14.396 2°55.141 19.0222 0.063602 0.346505 -0.896096
2010-05-18 07:17:55 51°14.411 2°55.127 19.0802 0.063602 0.34651 -0.896096
2010-05-18 07:18:00 51°14.427 2°55.113 19.0638 0.063602 0.346516 -0.861272
2010-05-18 07:18:05 51°14.442 2°55.1 19.1213 0.063602 0.346521 -0.861272
2010-05-18 07:18:10 51°14.458 2°55.088 19.1287 0.063602 0.346521 -0.861272
2010-05-18 07:18:14 51°14.471 2°55.079 19.0846 0.063602 0.346521 -0.861272
2010-05-18 07:18:20 51°14.491 2°55.065 19.2937 0.063602 0.346538 -0.861272
2010-05-18 07:18:25 51°14.508 2°55.054 19.4182 0.063602 0.346538 -0.896096
2010-05-18 07:18:30 51°14.524 2°55.042 19.4606 0.063602 0.346555 -0.861272
2010-05-18 07:18:35 51°14.54 2°55.027 19.437 0.063602 0.346577 -0.861272
2010-05-18 07:18:40 51°14.553 2°55.008 19.2709 0.063602 0.346583 -0.861272
2010-05-18 07:18:45 51°14.565 2°54.985 18.973 0.063602 0.346583 -0.861272
2010-05-18 07:18:50 51°14.579 2°54.963 18.9862 0.063602 0.346555 -0.826448
2010-05-18 07:18:55 51°14.592 2°54.942 19.0513 0.063602 0.346527 -0.896096
2010-05-18 07:19:00 51°14.606 2°54.922 19.0848 0.063602 0.346516 -0.896096
2010-05-18 07:19:05 51°14.62 2°54.903 19.1085 0.063602 0.346516 -0.861272
2010-05-18 07:19:10 51°14.634 2°54.884 19.159 0.063602 0.346521 -0.826448
2010-05-18 07:19:14 51°14.646 2°54.868 19.1623 0.063602 0.346521 -0.826448
2010-05-18 07:19:20 51°14.664 2°54.846 19.0247 0.063602 0.346527 -0.896096
2010-05-18 07:19:25 51°14.678 2°54.827 19.0322 0.063602 0.346533 -0.861272
2010-05-18 07:19:30 51°14.694 2°54.81 19.067 0.063602 0.346533 -0.896096
2010-05-18 07:19:35 51°14.709 2°54.795 19.1045 0.063602 0.346527 -0.826448
2010-05-18 07:19:40 51°14.726 2°54.781 19.1271 0.063602 0.346516 -0.861272
2010-05-18 07:19:45 51°14.742 2°54.767 19.1727 0.063602 0.346516 -0.861272
2010-05-18 07:19:50 51°14.758 2°54.754 19.155 0.063602 0.346527 -0.861272
2010-05-18 07:19:54 51°14.771 2°54.743 19.2102 0.063602 0.346544 -0.861272
2010-05-18 07:20:00 51°14.791 2°54.726 19.2218 0.063602 0.34656 -0.826448
2010-05-18 07:20:05 51°14.807 2°54.712 19.2162 0.063602 0.346599 -0.861272
2010-05-18 07:20:10 51°14.823 2°54.697 19.1648 0.063602 0.346638 -0.826448
2010-05-18 07:20:15 51°14.839 2°54.682 19.189 0.063602 0.346638 -0.826448
2010-05-18 07:20:20 51°14.855 2°54.666 19.1597 0.063602 0.346672 -0.861272
2010-05-18 07:20:25 51°14.871 2°54.65 19.1223 0.063602 0.346705 -0.861272
2010-05-18 07:20:30 51°14.886 2°54.634 19.1086 0.063602 0.346727 -0.861272
2010-05-18 07:20:34 51°14.899 2°54.621 19.1491 0.063602 0.346744 -0.896096
2010-05-18 07:20:40 51°14.917 2°54.602 19.1137 0.063602 0.346755 -0.861272
2010-05-18 07:20:45 51°14.933 2°54.586 19.1903 0.063602 0.346755 -0.861272
2010-05-18 07:20:50 51°14.948 2°54.569 19.0855 0.063602 0.346755 -0.861272
2010-05-18 07:20:55 51°14.963 2°54.553 19.12 0.063498 0.346181 -0.861272
2010-05-18 07:21:00 51°14.978 2°54.537 19.1459 0.063602 0.346761 -0.861272
2010-05-18 07:21:05 51°14.993 2°54.52 19.141 0.063602 0.346761 -0.861272
2010-05-18 07:21:10 51°15.008 2°54.504 19.1045 0.063602 0.346761 -0.896096
2010-05-18 07:21:14 51°15.021 2°54.49 19.1223 0.063602 0.346761 -0.896096
2010-05-18 07:21:20 51°15.039 2°54.47 19.1208 0.063602 0.346761 -0.861272
2010-05-18 07:21:25 51°15.054 2°54.453 19.0976 0.063602 0.346749 -0.826448
2010-05-18 07:21:30 51°15.07 2°54.436 19.1016 0.063602 0.346749 -0.826448
2010-05-18 07:21:35 51°15.085 2°54.419 19.1256 0.063602 0.346749 -0.861272
2010-05-18 07:21:40 51°15.1 2°54.402 19.1292 0.063602 0.346749 -0.861272
2010-05-18 07:21:45 51°15.116 2°54.386 19.1006 0.063602 0.346749 -0.861272
2010-05-18 07:21:50 51°15.131 2°54.369 19.097 0.063602 0.346749 -0.861272
2010-05-18 07:21:55 51°15.147 2°54.352 19.1355 0.063602 0.346749 -0.861272
2010-05-18 07:22:00 51°15.162 2°54.335 19.1505 0.063602 0.346761 -0.826448
2010-05-18 07:22:05 51°15.178 2°54.317 19.0894 0.063602 0.346772 -0.861272
2010-05-18 07:22:10 51°15.193 2°54.3 19.1248 0.063602 0.346777 -0.896096
2010-05-18 07:22:15 51°15.208 2°54.282 19.1288 0.063602 0.346777 -0.896096
2010-05-18 07:22:20 51°15.223 2°54.264 19.1246 0.063602 0.346794 -0.896096
2010-05-18 07:22:25 51°15.238 2°54.245 19.1098 0.063602 0.346811 -0.861272
2010-05-18 07:22:30 51°15.254 2°54.227 19.1358 0.063602 0.346827 -0.896096
2010-05-18 07:22:35 51°15.269 2°54.208 19.0956 0.063602 0.346833 -0.896096
2010-05-18 07:22:40 51°15.283 2°54.19 19.072 0.063498 0.346259 -0.896096
2010-05-18 07:22:45 51°15.298 2°54.171 19.119 0.063498 0.346259 -0.896096
2010-05-18 07:22:50 51°15.313 2°54.152 19.064 0.063498 0.346265 -0.861272
2010-05-18 07:22:55 51°15.328 2°54.133 19.0778 0.063498 0.346265 -0.861272
2010-05-18 07:23:14 51°15.385 2°54.061 19.1062 0.063602 0.346872 -0.826448
2010-05-18 07:23:20 51°15.404 2°54.039 19.1104 0.063498 0.346293 -0.861272
2010-05-18 07:23:34 51°15.446 2°53.987 19.1032 0.063498 0.346309 -0.861272
2010-05-18 07:23:39 51°15.461 2°53.968 19.1123 0.063498 0.346309 -0.861272
2010-05-18 07:25:11 51°15.731 2°53.607 19.1599 0.063498 0.346365 -0.861272
2010-05-18 07:26:15 51°15.918 2°53.357 19.0868 0.063498 0.346432 -0.896096
2010-05-18 07:26:20 51°15.933 2°53.338 19.0653 0.063498 0.346465 -0.861272
2010-05-18 07:26:25 51°15.947 2°53.319 19.099 0.063498 0.346515 -0.861272
2010-05-18 07:26:30 51°15.962 2°53.299 19.1059 0.063498 0.346515 -0.861272
2010-05-18 07:26:34 51°15.974 2°53.284 19.1282 0.063498 0.346521 -0.861272
2010-05-18 07:26:40 51°15.991 2°53.261 19.1331 0.063498 0.346526 -0.826448
2010-05-18 07:26:45 51°16.007 2°53.244 19.1181 0.063498 0.346526 -0.826448
2010-05-18 07:26:50 51°16.023 2°53.226 19.108 0.063498 0.346537 -0.861272
2010-05-18 07:26:55 51°16.039 2°53.212 19.1338 0.063498 0.346537 -0.861272
2010-05-18 07:27:00 51°16.055 2°53.195 19.1134 0.063498 0.346543 -0.861272
2010-05-18 07:27:05 51°16.071 2°53.182 19.1198 0.063498 0.346537 -0.861272
2010-05-18 07:27:10 51°16.088 2°53.167 19.0945 0.063498 0.346549 -0.826448
2010-05-18 07:27:14 51°16.101 2°53.156 19.1053 0.063498 0.346549 -0.826448
2010-05-18 07:27:20 51°16.121 2°53.139 19.0583 0.063498 0.346549 -0.826448
2010-05-18 07:27:25 51°16.138 2°53.127 19.0678 0.063498 0.346554 -0.861272
2010-05-18 07:27:30 51°16.155 2°53.113 19.0785 0.063498 0.346571 -0.861272
2010-05-18 07:27:35 51°16.172 2°53.101 19.0714 0.063498 0.346576 -0.861272
2010-05-18 07:27:40 51°16.189 2°53.088 19.0361 0.063498 0.346588 -0.826448
2010-05-18 07:27:45 51°16.207 2°53.076 19.0903 0.063498 0.346588 -0.826448
2010-05-18 07:27:50 51°16.224 2°53.063 19.0889 0.063498 0.346599 -0.826448
2010-05-18 07:27:55 51°16.241 2°53.05 19.0675 0.063498 0.34661 -0.826448
2010-05-18 07:28:00 51°16.258 2°53.037 19.0728 0.063498 0.346621 -0.861272
2010-05-18 07:28:05 51°16.275 2°53.027 19.0856 0.063498 0.346621 -0.826448
2010-05-18 07:28:10 51°16.293 2°53.014 19.0545 0.063498 0.346638 -0.826448
2010-05-18 07:28:14 51°16.307 2°53.006 19.0899 0.063498 0.346638 -0.826448
2010-05-18 07:28:20 51°16.328 2°52.993 19.0624 0.063498 0.346643 -0.826448
2010-05-18 07:28:25 51°16.346 2°52.983 19.1147 0.063498 0.346654 -0.861272
2010-05-18 07:28:30 51°16.363 2°52.973 19.0853 0.063498 0.34666 -0.861272
2010-05-18 07:28:35 51°16.381 2°52.962 19.0925 0.063498 0.346666 -0.826448
2010-05-18 07:28:40 51°16.399 2°52.952 19.0998 0.063498 0.346671 -0.861272
2010-05-18 07:28:45 51°16.416 2°52.942 19.1162 0.063498 0.346671 -0.861272
2010-05-18 07:28:50 51°16.434 2°52.932 19.0813 0.063498 0.346677 -0.861272
2010-05-18 07:28:55 51°16.452 2°52.922 19.0849 0.063498 0.346688 -0.861272
2010-05-18 07:29:00 51°16.47 2°52.911 19.1022 0.063498 0.346688 -0.826448
2010-05-18 07:29:05 51°16.487 2°52.901 19.0899 0.063498 0.346699 -0.826448
2010-05-18 07:29:10 51°16.505 2°52.89 19.1012 0.063498 0.346705 -0.861272
2010-05-18 07:29:14 51°16.519 2°52.882 19.0962 0.063498 0.346705 -0.861272
2010-05-18 07:29:20 51°16.54 2°52.869 19.1086 0.063498 0.346705 -0.826448
2010-05-18 07:29:25 51°16.558 2°52.859 19.0994 0.063498 0.346705 -0.861272
2010-05-18 07:29:30 51°16.575 2°52.849 19.0999 0.063498 0.346705 -0.861272
2010-05-18 07:29:35 51°16.593 2°52.838 19.1079 0.063498 0.34671 -0.826448
2010-05-18 07:29:40 51°16.611 2°52.828 19.1064 0.063498 0.346721 -0.826448
2010-05-18 07:29:45 51°16.628 2°52.817 19.0919 0.063498 0.346721 -0.826448
2010-05-18 07:29:50 51°16.646 2°52.807 19.1016 0.063498 0.346721 -0.861272
2010-05-18 07:29:55 51°16.664 2°52.797 19.0648 0.063498 0.346727 -0.861272
2010-05-18 07:30:00 51°16.681 2°52.786 19.1182 0.063498 0.346744 -0.861272
2010-05-18 07:30:05 51°16.699 2°52.776 19.0838 0.063498 0.346749 -0.861272
2010-05-18 07:30:10 51°16.717 2°52.766 19.1153 0.063498 0.346766 -0.861272
2010-05-18 07:30:14 51°16.731 2°52.758 19.0959 0.063498 0.346766 -0.861272
2010-05-18 07:30:20 51°16.752 2°52.745 19.0977 0.063498 0.346777 -0.861272
2010-05-18 07:30:25 51°16.77 2°52.735 19.1 0.063498 0.346788 -0.826448
2010-05-18 07:30:30 51°16.787 2°52.725 19.1032 0.063498 0.346794 -0.826448
2010-05-18 07:30:35 51°16.804 2°52.715 19.1094 0.063498 0.346805 -0.861272
2010-05-18 07:30:40 51°16.821 2°52.704 19.111 0.063498 0.346811 -0.826448
2010-05-18 07:30:45 51°16.839 2°52.694 19.084 0.063498 0.346811 -0.826448
2010-05-18 07:30:50 51°16.856 2°52.683 19.1131 0.063498 0.346822 -0.826448
2010-05-18 07:30:55 51°16.874 2°52.673 19.1151 0.063498 0.346822 -0.861272
2010-05-18 07:31:00 51°16.891 2°52.662 19.1019 0.063498 0.346839 -0.861272
2010-05-18 07:31:05 51°16.908 2°52.651 19.0881 0.063498 0.346839 -0.861272
2010-05-18 07:31:10 51°16.926 2°52.641 19.1125 0.063498 0.346844 -0.861272
2010-05-18 07:31:15 51°16.944 2°52.63 19.1143 0.063498 0.346844 -0.861272
2010-05-18 07:31:20 51°16.961 2°52.619 19.104 0.063498 0.346844 -0.826448
2010-05-18 07:31:25 51°16.979 2°52.609 19.0895 0.063498 0.34685 -0.861272
2010-05-18 07:31:30 51°16.997 2°52.599 19.1017 0.063498 0.346861 -0.826448
2010-05-18 07:31:35 51°17.014 2°52.588 19.1241 0.063394 0.346281 -0.791624
2010-05-18 07:31:40 51°17.032 2°52.578 19.1092 0.063498 0.346872 -0.826448
2010-05-18 07:31:45 51°17.05 2°52.567 19.1194 0.063498 0.346872 -0.826448
2010-05-18 07:31:50 51°17.067 2°52.557 19.0969 0.063498 0.346872 -0.861272
2010-05-18 07:31:55 51°17.085 2°52.546 19.102 0.063498 0.346883 -0.861272
2010-05-18 07:32:00 51°17.102 2°52.536 19.1168 0.063498 0.346894 -0.791624
2010-05-18 07:32:05 51°17.12 2°52.525 19.1264 0.063498 0.3469 -0.826448
2010-05-18 07:32:10 51°17.138 2°52.514 19.0836 0.063498 0.346906 -0.861272
2010-05-18 07:32:14 51°17.152 2°52.506 19.1286 0.063498 0.346906 -0.861272
2010-05-18 07:32:20 51°17.173 2°52.493 19.0907 0.063498 0.346917 -0.861272
2010-05-18 07:32:25 51°17.191 2°52.482 19.1276 0.063394 0.346342 -0.861272
2010-05-18 07:32:30 51°17.209 2°52.472 19.1142 0.063498 0.346928 -0.826448
2010-05-18 07:32:35 51°17.226 2°52.461 19.0852 0.063498 0.346939 -0.826448
2010-05-18 07:32:40 51°17.244 2°52.451 19.1188 0.063394 0.346364 -0.826448
2010-05-18 07:32:45 51°17.262 2°52.441 19.115 0.063394 0.346364 -0.826448
2010-05-18 07:32:50 51°17.28 2°52.431 19.125 0.063394 0.34637 -0.861272
2010-05-18 07:32:55 51°17.298 2°52.42 19.1337 0.063394 0.34637 -0.791624
2010-05-18 07:33:00 51°17.316 2°52.41 19.1241 0.063394 0.346381 -0.826448
2010-05-18 07:33:05 51°17.333 2°52.399 19.117 0.063394 0.346392 -0.826448
2010-05-18 07:33:10 51°17.351 2°52.388 19.1399 0.063394 0.346387 -0.861272
2010-05-18 07:33:15 51°17.369 2°52.377 19.1125 0.063394 0.346387 -0.861272
2010-05-18 07:33:20 51°17.386 2°52.367 19.1267 0.063394 0.346398 -0.861272
2010-05-18 07:33:25 51°17.404 2°52.356 19.0964 0.063394 0.346403 -0.826448
2010-05-18 07:33:30 51°17.422 2°52.345 19.1285 0.063394 0.346409 -0.826448
2010-05-18 07:33:35 51°17.44 2°52.335 19.13 0.063394 0.34642 -0.826448
2010-05-18 07:33:40 51°17.457 2°52.324 19.1284 0.063394 0.34642 -0.826448
2010-05-18 07:33:45 51°17.475 2°52.314 19.1336 0.063394 0.34642 -0.826448
2010-05-18 07:33:50 51°17.493 2°52.303 19.1034 0.063394 0.346437 -0.861272
2010-05-18 07:33:55 51°17.511 2°52.293 19.1319 0.063394 0.346442 -0.826448
2010-05-18 07:34:00 51°17.528 2°52.282 19.1458 0.063394 0.346448 -0.826448
2010-05-18 07:34:05 51°17.546 2°52.272 19.1377 0.063394 0.346448 -0.826448
2010-05-18 07:34:10 51°17.564 2°52.261 19.1075 0.063394 0.346459 -0.861272
2010-05-18 07:34:14 51°17.578 2°52.253 19.146 0.063394 0.346459 -0.861272
2010-05-18 07:34:20 51°17.6 2°52.24 19.1375 0.063394 0.346459 -0.791624
2010-05-18 07:34:25 51°17.617 2°52.23 19.1406 0.063394 0.34647 -0.826448
2010-05-18 07:34:30 51°17.635 2°52.219 19.1391 0.063394 0.34647 -0.791624
2010-05-18 07:34:35 51°17.653 2°52.208 19.1345 0.063394 0.34647 -0.826448
2010-05-18 07:34:40 51°17.671 2°52.197 19.1304 0.063394 0.346476 -0.861272
2010-05-18 07:34:45 51°17.688 2°52.187 19.1287 0.063394 0.346476 -0.861272
2010-05-18 07:34:50 51°17.706 2°52.176 19.1194 0.063394 0.346481 -0.826448
2010-05-18 07:34:54 51°17.72 2°52.167 19.1171 0.063394 0.346493 -0.826448
2010-05-18 07:35:00 51°17.742 2°52.155 19.146 0.063394 0.346498 -0.826448
2010-05-18 07:35:05 51°17.759 2°52.145 19.1557 0.063394 0.346504 -0.826448
2010-05-18 07:35:10 51°17.777 2°52.134 19.1521 0.063394 0.346515 -0.826448
2010-05-18 07:35:15 51°17.795 2°52.124 19.151 0.063394 0.346515 -0.826448
2010-05-18 07:35:20 51°17.812 2°52.113 19.1224 0.063394 0.346526 -0.791624
2010-05-18 07:35:25 51°17.83 2°52.103 19.1519 0.063394 0.346537 -0.826448
2010-05-18 07:35:30 51°17.848 2°52.092 19.1438 0.063394 0.346548 -0.861272
2010-05-18 07:35:34 51°17.862 2°52.084 19.1182 0.063394 0.346554 -0.861272
2010-05-18 07:35:40 51°17.883 2°52.071 19.1551 0.063394 0.346571 -0.826448
2010-05-18 07:35:45 51°17.901 2°52.061 19.1153 0.063394 0.346571 -0.826448
2010-05-18 07:35:50 51°17.919 2°52.05 19.1571 0.063394 0.346576 -0.861272
2010-05-18 07:35:55 51°17.937 2°52.04 19.1475 0.063394 0.346582 -0.791624
2010-05-18 07:36:00 51°17.954 2°52.029 19.013 0.063394 0.346587 -0.861272
2010-05-18 07:36:05 51°17.972 2°52.018 19.3932 0.063394 0.346599 -0.861272
2010-05-18 07:36:10 51°17.99 2°52.008 19.9404 0.063394 0.346599 -0.826448
2010-05-18 07:36:14 51°18.004 2°51.999 19.8447 0.063394 0.346599 -0.826448
2010-05-18 07:36:20 51°18.025 2°51.986 19.7607 0.063394 0.34661 -0.791624
2010-05-18 07:36:25 51°18.042 2°51.975 19.6832 0.063394 0.346615 -0.826448
2010-05-18 07:36:30 51°18.06 2°51.964 19.6223 0.063394 0.346627 -0.826448
2010-05-18 07:36:35 51°18.077 2°51.953 19.5718 0.063394 0.346627 -0.826448
2010-05-18 07:36:40 51°18.095 2°51.941 19.5352 0.063394 0.346638 -0.861272
2010-05-18 07:36:45 51°18.112 2°51.93 19.5012 0.063394 0.346638 -0.861272
2010-05-18 07:36:50 51°18.13 2°51.919 19.4731 0.063394 0.346643 -0.861272
2010-05-18 07:36:55 51°18.147 2°51.908 19.4483 0.063394 0.346649 -0.861272
2010-05-18 07:37:00 51°18.165 2°51.896 19.4429 0.063394 0.34666 -0.791624
2010-05-18 07:37:05 51°18.183 2°51.885 19.4342 0.063394 0.346671 -0.861272
2010-05-18 07:37:10 51°18.2 2°51.874 19.4259 0.063394 0.346671 -0.861272
2010-05-18 07:37:14 51°18.214 2°51.865 19.4214 0.063394 0.346671 -0.861272
2010-05-18 07:37:20 51°18.236 2°51.851 19.4171 0.063394 0.346682 -0.826448
2010-05-18 07:37:25 51°18.253 2°51.84 19.4235 0.063394 0.346694 -0.861272
2010-05-18 07:37:30 51°18.271 2°51.829 19.4185 0.063394 0.346699 -0.826448
2010-05-18 07:37:35 51°18.289 2°51.818 19.42 0.063394 0.346716 -0.826448
2010-05-18 07:37:40 51°18.306 2°51.807 19.4258 0.063394 0.34671 -0.791624
2010-05-18 07:37:45 51°18.324 2°51.795 19.4258 0.063394 0.34671 -0.791624
2010-05-18 07:37:50 51°18.342 2°51.784 19.4216 0.063394 0.346722 -0.861272
2010-05-18 07:37:55 51°18.36 2°51.773 19.4273 0.063394 0.346727 -0.826448
2010-05-18 07:38:00 51°18.377 2°51.762 19.4325 0.063394 0.346733 -0.826448
2010-05-18 07:38:05 51°18.395 2°51.751 19.4299 0.063394 0.346738 -0.861272
2010-05-18 07:38:10 51°18.413 2°51.74 19.4351 0.063394 0.346749 -0.896096
2010-05-18 07:38:14 51°18.427 2°51.731 19.4375 0.063394 0.346749 -0.896096
2010-05-18 07:38:20 51°18.448 2°51.717 19.4396 0.063394 0.346761 -0.861272
2010-05-18 07:38:25 51°18.466 2°51.705 19.4403 0.063394 0.346761 -0.826448
2010-05-18 07:38:30 51°18.483 2°51.693 19.4406 0.063394 0.346766 -0.826448
2010-05-18 07:38:34 51°18.497 2°51.684 19.4464 0.063394 0.346777 -0.826448
2010-05-18 07:38:40 51°18.518 2°51.67 19.446 0.063394 0.346789 -0.861272
2010-05-18 07:38:45 51°18.536 2°51.658 19.4511 0.063394 0.346789 -0.861272
2010-05-18 07:38:50 51°18.553 2°51.647 19.4569 0.063394 0.3468 -0.861272
2010-05-18 07:38:55 51°18.571 2°51.635 19.4563 0.063394 0.3468 -0.826448
2010-05-18 07:39:00 51°18.588 2°51.623 19.454 0.063394 0.346805 -0.826448
2010-05-18 07:39:05 51°18.606 2°51.611 19.4606 0.063394 0.346811 -0.826448
2010-05-18 07:39:10 51°18.623 2°51.599 19.456 0.063394 0.346817 -0.861272
2010-05-18 07:39:14 51°18.637 2°51.59 19.4588 0.063394 0.346817 -0.861272
2010-05-18 07:39:20 51°18.658 2°51.576 19.4617 0.063394 0.346822 -0.826448
2010-05-18 07:39:25 51°18.676 2°51.564 19.4579 0.063394 0.346833 -0.826448
2010-05-18 07:39:30 51°18.693 2°51.553 19.4611 0.063394 0.346839 -0.861272
2010-05-18 07:39:35 51°18.711 2°51.541 19.4671 0.063394 0.346845 -0.861272
2010-05-18 07:39:40 51°18.729 2°51.529 19.4659 0.063394 0.34685 -0.826448
2010-05-18 07:39:45 51°18.746 2°51.518 19.471 0.063394 0.34685 -0.826448
2010-05-18 07:39:50 51°18.764 2°51.506 19.4738 0.063394 0.346861 -0.826448
2010-05-18 07:39:55 51°18.781 2°51.494 19.4695 0.063394 0.346867 -0.861272
2010-05-18 07:40:00 51°18.799 2°51.482 19.4768 0.063394 0.346873 -0.826448
2010-05-18 07:40:05 51°18.816 2°51.47 19.4706 0.063394 0.346884 -0.826448
2010-05-18 07:40:10 51°18.834 2°51.459 19.4801 0.063394 0.346889 -0.861272
2010-05-18 07:40:14 51°18.848 2°51.45 19.4814 0.063394 0.346889 -0.861272
2010-05-18 07:40:20 51°18.869 2°51.437 19.4877 0.063394 0.346895 -0.826448
2010-05-18 07:40:25 51°18.886 2°51.425 19.481 0.063394 0.3469 -0.861272
2010-05-18 07:40:30 51°18.903 2°51.414 19.4796 0.063394 0.346906 -0.826448
2010-05-18 07:40:35 51°18.921 2°51.402 19.4899 0.063394 0.346912 -0.826448
2010-05-18 07:40:40 51°18.938 2°51.39 19.4852 0.063394 0.346923 -0.826448
2010-05-18 07:40:45 51°18.956 2°51.379 19.4908 0.063394 0.346923 -0.826448
2010-05-18 07:40:50 51°18.973 2°51.367 19.4883 0.063394 0.346923 -0.826448
2010-05-18 07:40:55 51°18.99 2°51.356 19.4908 0.063394 0.346934 -0.861272
2010-05-18 07:41:00 51°19.008 2°51.344 19.4896 0.063394 0.346945 -0.826448
2010-05-18 07:41:05 51°19.025 2°51.333 19.4901 0.063394 0.346956 -0.826448
2010-05-18 07:41:10 51°19.043 2°51.321 19.4925 0.063394 0.346962 -0.861272
2010-05-18 07:41:14 51°19.057 2°51.313 19.4981 0.063394 0.346962 -0.861272
2010-05-18 07:41:20 51°19.078 2°51.299 19.4972 0.063394 0.346962 -0.826448
2010-05-18 07:41:25 51°19.095 2°51.288 19.4752 0.063394 0.346973 -0.826448
2010-05-18 07:41:30 51°19.113 2°51.277 19.069 0.063394 0.34699 -0.861272
2010-05-18 07:41:35 51°19.13 2°51.265 17.2184 0.063394 0.346996 -0.652328
2010-05-18 07:41:40 51°19.147 2°51.254 16.3249 0.063394 0.347007 -0.791624
2010-05-18 07:41:45 51°19.165 2°51.242 16.3986 0.063394 0.347007 -0.791624
2010-05-18 07:41:50 51°19.182 2°51.231 16.9055 0.063394 0.347012 -0.791624
2010-05-18 07:41:55 51°19.2 2°51.219 17.1115 0.063394 0.347024 -0.826448
2010-05-18 07:42:00 51°19.217 2°51.208 16.8535 0.063394 0.347029 -0.826448
2010-05-18 07:42:05 51°19.234 2°51.197 17.1985 0.063394 0.347035 -0.826448
2010-05-18 07:42:10 51°19.252 2°51.186 17.0431 0.063394 0.347035 -0.861272
2010-05-18 07:42:15 51°19.269 2°51.175 17.1953 0.063394 0.347035 -0.861272
2010-05-18 07:42:20 51°19.287 2°51.164 17.1942 0.063394 0.347052 -0.826448
2010-05-18 07:42:25 51°19.304 2°51.153 17.4316 0.063394 0.347057 -0.826448
2010-05-18 07:42:30 51°19.322 2°51.143 17.1687 0.063394 0.347063 -0.826448
2010-05-18 07:42:35 51°19.339 2°51.132 17.5268 0.063394 0.347068 -0.861272
2010-05-18 07:42:40 51°19.356 2°51.12 17.2143 0.063394 0.34708 -0.826448
2010-05-18 07:42:45 51°19.374 2°51.109 17.5992 0.063394 0.34708 -0.826448
2010-05-18 07:42:50 51°19.391 2°51.098 17.5272 0.063394 0.347085 -0.861272
2010-05-18 07:42:55 51°19.409 2°51.087 17.3802 0.063394 0.347085 -0.861272
2010-05-18 07:43:00 51°19.426 2°51.076 17.3293 0.063394 0.347096 -0.826448
2010-05-18 07:43:05 51°19.444 2°51.065 17.4501 0.06329 0.346509 -0.826448
2010-05-18 07:43:10 51°19.461 2°51.053 17.4296 0.063394 0.347102 -0.826448
2010-05-18 07:43:14 51°19.475 2°51.044 17.405 0.063394 0.347102 -0.826448
2010-05-18 07:43:20 51°19.496 2°51.031 17.4245 0.06329 0.346521 -0.826448
2010-05-18 07:43:25 51°19.513 2°51.02 17.4225 0.06329 0.346526 -0.826448
2010-05-18 07:43:30 51°19.531 2°51.009 17.4715 0.063394 0.347119 -0.826448
2010-05-18 07:43:35 51°19.548 2°50.997 17.5449 0.06329 0.346537 -0.861272
2010-05-18 07:43:40 51°19.566 2°50.986 17.3866 0.06329 0.346543 -0.861272
2010-05-18 07:43:45 51°19.583 2°50.975 17.7411 0.06329 0.346543 -0.861272
2010-05-18 07:43:50 51°19.601 2°50.964 17.6714 0.06329 0.34656 -0.791624
2010-05-18 07:43:55 51°19.618 2°50.953 17.5821 0.063394 0.347147 -0.861272
2010-05-18 07:44:00 51°19.635 2°50.942 17.4563 0.063394 0.347158 -0.861272
2010-05-18 07:44:05 51°19.653 2°50.931 17.6429 0.06329 0.346576 -0.826448
2010-05-18 07:44:10 51°19.67 2°50.919 17.5143 0.063394 0.347169 -0.826448
2010-05-18 07:44:14 51°19.684 2°50.91 17.8179 0.063394 0.347169 -0.826448
2010-05-18 07:44:20 51°19.705 2°50.897 17.7548 0.06329 0.346588 -0.826448
2010-05-18 07:44:25 51°19.722 2°50.885 17.7444 0.06329 0.346593 -0.826448
2010-05-18 07:44:30 51°19.74 2°50.874 17.5822 0.06329 0.346599 -0.826448
2010-05-18 07:44:35 51°19.757 2°50.864 17.856 0.063394 0.347186 -0.826448
2010-05-18 07:44:40 51°19.774 2°50.853 17.6245 0.06329 0.34661 -0.826448
2010-05-18 07:44:45 51°19.792 2°50.841 17.7041 0.06329 0.34661 -0.826448
2010-05-18 07:44:50 51°19.809 2°50.83 17.6804 0.06329 0.346616 -0.826448
2010-05-18 07:44:55 51°19.827 2°50.819 17.7422 0.06329 0.346616 -0.861272
2010-05-18 07:45:00 51°19.845 2°50.807 17.6807 0.06329 0.346621 -0.826448
2010-05-18 07:45:05 51°19.862 2°50.796 17.7354 0.06329 0.346627 -0.826448
2010-05-18 07:45:10 51°19.88 2°50.784 17.7077 0.06329 0.346632 -0.826448
2010-05-18 07:45:14 51°19.894 2°50.775 17.7968 0.06329 0.346632 -0.826448
2010-05-18 07:45:20 51°19.915 2°50.761 17.7906 0.06329 0.346632 -0.826448
2010-05-18 07:45:25 51°19.933 2°50.749 17.7649 0.06329 0.346638 -0.826448
2010-05-18 07:45:30 51°19.95 2°50.737 18.0068 0.06329 0.346655 -0.861272
2010-05-18 07:45:34 51°19.964 2°50.728 17.8266 0.06329 0.34666 -0.826448
2010-05-18 07:45:40 51°19.985 2°50.714 17.769 0.06329 0.346672 -0.826448
2010-05-18 07:45:45 51°20.003 2°50.702 17.8165 0.06329 0.346672 -0.826448
2010-05-18 07:45:50 51°20.021 2°50.69 17.8614 0.06329 0.346683 -0.861272
2010-05-18 07:45:55 51°20.038 2°50.679 17.9112 0.06329 0.346694 -0.826448
2010-05-18 07:46:00 51°20.056 2°50.667 17.7268 0.06329 0.346694 -0.826448
2010-05-18 07:46:05 51°20.074 2°50.655 17.8907 0.06329 0.346711 -0.791624
2010-05-18 07:46:10 51°20.091 2°50.644 17.8339 0.06329 0.346728 -0.826448
2010-05-18 07:46:15 51°20.109 2°50.632 17.7881 0.06329 0.346728 -0.826448
2010-05-18 07:46:20 51°20.127 2°50.621 17.8119 0.06329 0.346728 -0.791624
2010-05-18 07:46:25 51°20.145 2°50.609 17.7584 0.06329 0.346739 -0.861272
2010-05-18 07:46:30 51°20.162 2°50.597 17.8481 0.06329 0.346744 -0.861272
2010-05-18 07:46:34 51°20.176 2°50.588 18.0543 0.06329 0.346744 -0.826448
2010-05-18 07:46:40 51°20.197 2°50.574 18.0524 0.06329 0.34675 -0.826448
2010-05-18 07:46:45 51°20.215 2°50.562 17.8981 0.06329 0.34675 -0.826448
2010-05-18 07:46:50 51°20.232 2°50.55 17.8904 0.06329 0.346756 -0.861272
2010-05-18 07:46:55 51°20.25 2°50.539 17.8892 0.06329 0.346761 -0.826448
2010-05-18 07:47:00 51°20.267 2°50.528 17.8549 0.06329 0.346767 -0.791624
2010-05-18 07:47:05 51°20.285 2°50.516 18.0114 0.06329 0.346778 -0.861272
2010-05-18 07:47:10 51°20.303 2°50.504 17.864 0.06329 0.346772 -0.826448
2010-05-18 07:47:15 51°20.32 2°50.493 18.0542 0.06329 0.346772 -0.826448
2010-05-18 07:47:20 51°20.337 2°50.481 17.9193 0.06329 0.346789 -0.826448
2010-05-18 07:47:25 51°20.355 2°50.469 17.9391 0.06329 0.346784 -0.826448
2010-05-18 07:47:30 51°20.373 2°50.457 18.0426 0.06329 0.346795 -0.861272
2010-05-18 07:47:35 51°20.39 2°50.446 17.8919 0.06329 0.346806 -0.826448
2010-05-18 07:47:40 51°20.408 2°50.434 17.8802 0.06329 0.346812 -0.826448
2010-05-18 07:47:45 51°20.425 2°50.423 18.0352 0.06329 0.346812 -0.826448
2010-05-18 07:47:50 51°20.443 2°50.411 17.9336 0.06329 0.346817 -0.861272
2010-05-18 07:47:55 51°20.46 2°50.399 18.0398 0.06329 0.346828 -0.826448
2010-05-18 07:48:00 51°20.478 2°50.388 17.9218 0.06329 0.34684 -0.861272
2010-05-18 07:48:05 51°20.495 2°50.376 17.95 0.06329 0.34684 -0.861272
2010-05-18 07:48:10 51°20.513 2°50.364 17.9431 0.06329 0.346857 -0.826448
2010-05-18 07:48:15 51°20.53 2°50.352 18.2473 0.06329 0.346857 -0.826448
2010-05-18 07:48:20 51°20.548 2°50.34 18.207 0.06329 0.346862 -0.791624
2010-05-18 07:48:25 51°20.565 2°50.328 18.296 0.06329 0.346868 -0.861272
2010-05-18 07:48:30 51°20.583 2°50.32 18.1097 0.06329 0.346868 -0.826448
2010-05-18 07:48:34 51°20.597 2°50.311 18.1458 0.06329 0.346879 -0.826448
2010-05-18 07:48:40 51°20.619 2°50.302 18.1811 0.06329 0.346879 -0.861272
2010-05-18 07:48:45 51°20.637 2°50.293 18.2144 0.06329 0.346879 -0.861272
2010-05-18 07:48:50 51°20.655 2°50.287 18.118 0.06329 0.34689 -0.861272
2010-05-18 07:48:55 51°20.673 2°50.279 18.1124 0.06329 0.346896 -0.826448
2010-05-18 07:49:00 51°20.691 2°50.273 18.0897 0.06329 0.346896 -0.791624
2010-05-18 07:49:05 51°20.709 2°50.266 18.0571 0.06329 0.346913 -0.826448
2010-05-18 07:49:10 51°20.728 2°50.26 17.9987 0.06329 0.346907 -0.826448
2010-05-18 07:49:15 51°20.746 2°50.254 18.115 0.06329 0.346907 -0.826448
2010-05-18 07:49:20 51°20.764 2°50.248 18.0598 0.06329 0.346918 -0.861272
2010-05-18 07:49:25 51°20.782 2°50.241 18.1518 0.06329 0.346918 -0.826448
2010-05-18 07:49:30 51°20.8 2°50.235 18.0081 0.06329 0.346935 -0.826448
2010-05-18 07:49:34 51°20.815 2°50.23 18.0816 0.06329 0.346941 -0.861272
2010-05-18 07:49:40 51°20.837 2°50.223 18.0688 0.06329 0.346946 -0.861272
2010-05-18 07:49:45 51°20.855 2°50.216 18.2404 0.06329 0.346946 -0.861272
2010-05-18 07:49:50 51°20.873 2°50.21 18.1382 0.06329 0.346963 -0.826448
2010-05-18 07:49:55 51°20.892 2°50.203 18.1131 0.06329 0.346963 -0.826448
2010-05-18 07:50:00 51°20.91 2°50.197 18.1082 0.06329 0.346974 -0.791624
2010-05-18 07:50:05 51°20.928 2°50.19 18.2066 0.06329 0.346986 -0.826448
2010-05-18 07:50:10 51°20.947 2°50.184 18.2296 0.06329 0.346991 -0.791624
2010-05-18 07:50:14 51°20.961 2°50.179 18.2725 0.06329 0.346991 -0.791624
2010-05-18 07:50:20 51°20.984 2°50.172 18.4714 0.06329 0.346991 -0.826448
2010-05-18 07:50:25 51°21.002 2°50.166 18.4854 0.06329 0.347008 -0.826448
2010-05-18 07:50:30 51°21.02 2°50.165 18.3336 0.06329 0.347002 -0.826448
2010-05-18 07:50:35 51°21.039 2°50.163 18.4131 0.06329 0.347008 -0.826448
2010-05-18 07:50:40 51°21.057 2°50.164 18.2862 0.06329 0.347002 -0.861272
2010-05-18 07:50:45 51°21.075 2°50.165 18.4093 0.06329 0.347002 -0.861272
2010-05-18 07:50:50 51°21.093 2°50.167 18.2484 0.06329 0.347014 -0.861272
2010-05-18 07:50:55 51°21.112 2°50.17 18.3696 0.06329 0.347014 -0.826448
2010-05-18 07:51:00 51°21.13 2°50.174 18.2302 0.06329 0.347036 -0.826448
2010-05-18 07:51:05 51°21.148 2°50.179 18.2955 0.06329 0.347036 -0.861272
2010-05-18 07:51:10 51°21.166 2°50.184 18.2161 0.06329 0.347042 -0.826448
2010-05-18 07:51:15 51°21.183 2°50.191 18.2635 0.06329 0.347042 -0.826448
2010-05-18 07:51:20 51°21.202 2°50.197 18.1987 0.06329 0.347058 -0.826448
2010-05-18 07:51:25 51°21.219 2°50.205 18.3357 0.06329 0.347058 -0.826448
2010-05-18 07:51:30 51°21.237 2°50.212 18.155 0.06329 0.347075 -0.826448
2010-05-18 07:51:35 51°21.255 2°50.22 18.2023 0.06329 0.347081 -0.826448
2010-05-18 07:51:40 51°21.272 2°50.228 18.2046 0.06329 0.347087 -0.826448
2010-05-18 07:51:45 51°21.289 2°50.235 18.3521 0.06329 0.347087 -0.826448
2010-05-18 07:51:50 51°21.307 2°50.244 18.1146 0.06329 0.347103 -0.861272
2010-05-18 07:51:54 51°21.321 2°50.25 18.2266 0.06329 0.347103 -0.861272
2010-05-18 07:52:00 51°21.342 2°50.26 18.2174 0.06329 0.347109 -0.861272
2010-05-18 07:52:05 51°21.359 2°50.268 18.2807 0.06329 0.34712 -0.791624
2010-05-18 07:52:10 51°21.377 2°50.275 18.2347 0.06329 0.347131 -0.791624
2010-05-18 07:52:14 51°21.391 2°50.282 18.26 0.06329 0.347131 -0.791624
2010-05-18 07:52:20 51°21.412 2°50.291 18.1893 0.06329 0.347137 -0.826448
2010-05-18 07:52:25 51°21.43 2°50.298 18.2513 0.06329 0.347143 -0.826448
2010-05-18 07:52:30 51°21.447 2°50.306 18.2562 0.06329 0.347148 -0.826448
2010-05-18 07:52:34 51°21.462 2°50.311 18.3005 0.06329 0.347165 -0.826448
2010-05-18 07:52:40 51°21.483 2°50.32 18.2642 0.06329 0.347165 -0.826448
2010-05-18 07:52:45 51°21.501 2°50.328 18.334 0.06329 0.347165 -0.826448
2010-05-18 07:52:50 51°21.519 2°50.335 18.2162 0.06329 0.347171 -0.791624
2010-05-18 07:52:54 51°21.533 2°50.341 18.2151 0.06329 0.347176 -0.826448
2010-05-18 07:53:00 51°21.554 2°50.349 18.3015 0.06329 0.347188 -0.861272
2010-05-18 07:53:05 51°21.572 2°50.356 18.2104 0.06329 0.347193 -0.826448
2010-05-18 07:53:10 51°21.589 2°50.363 18.3877 0.06329 0.347205 -0.826448
2010-05-18 07:53:15 51°21.607 2°50.37 18.205 0.06329 0.347205 -0.826448
2010-05-18 07:53:20 51°21.625 2°50.377 18.3739 0.06329 0.347205 -0.861272
2010-05-18 07:53:25 51°21.643 2°50.384 18.2717 0.06329 0.347216 -0.826448
2010-05-18 07:53:30 51°21.66 2°50.391 18.2771 0.06329 0.34721 -0.826448
2010-05-18 07:53:35 51°21.678 2°50.398 18.2814 0.06329 0.347221 -0.861272
2010-05-18 07:53:40 51°21.696 2°50.405 18.3516 0.06329 0.347227 -0.826448
2010-05-18 07:53:45 51°21.714 2°50.411 18.3 0.06329 0.347227 -0.826448
2010-05-18 07:53:50 51°21.732 2°50.418 18.3662 0.06329 0.347227 -0.861272
2010-05-18 07:53:54 51°21.746 2°50.423 18.2786 0.06329 0.347233 -0.861272
2010-05-18 07:54:00 51°21.767 2°50.431 18.3066 0.06329 0.347238 -0.826448
2010-05-18 07:54:05 51°21.785 2°50.438 18.2086 0.06329 0.347238 -0.826448
2010-05-18 07:54:10 51°21.803 2°50.445 18.2752 0.06329 0.347244 -0.861272
2010-05-18 07:54:14 51°21.817 2°50.45 18.3582 0.06329 0.347244 -0.861272
2010-05-18 07:54:20 51°21.839 2°50.458 18.3917 0.06329 0.347261 -0.861272
2010-05-18 07:54:25 51°21.857 2°50.465 18.2894 0.06329 0.347266 -0.826448
2010-05-18 07:54:30 51°21.875 2°50.471 18.3451 0.06329 0.347272 -0.826448
2010-05-18 07:54:34 51°21.889 2°50.477 18.3082 0.06329 0.347278 -0.791624
2010-05-18 07:54:40 51°21.911 2°50.485 18.2432 0.06329 0.347289 -0.861272
2010-05-18 07:54:45 51°21.929 2°50.49 18.4166 0.06329 0.347289 -0.861272
2010-05-18 07:54:50 51°21.947 2°50.496 18.3742 0.06329 0.3473 -0.861272
2010-05-18 07:54:55 51°21.965 2°50.5 18.3815 0.06329 0.3473 -0.826448
2010-05-18 07:55:00 51°21.983 2°50.505 18.222 0.06329 0.347311 -0.826448
2010-05-18 07:55:05 51°22.002 2°50.508 18.1686 0.06329 0.347317 -0.861272
2010-05-18 07:55:10 51°22.02 2°50.51 18.2274 0.06329 0.347328 -0.861272
2010-05-18 07:55:14 51°22.035 2°50.511 18.3348 0.06329 0.347328 -0.861272
2010-05-18 07:55:20 51°22.058 2°50.51 18.2717 0.063185 0.346757 -0.826448
2010-05-18 07:55:25 51°22.077 2°50.508 18.3543 0.06329 0.347345 -0.861272
2010-05-18 07:55:30 51°22.095 2°50.506 18.3147 0.063185 0.346762 -0.861272
2010-05-18 07:55:35 51°22.114 2°50.504 18.382 0.06329 0.347356 -0.826448
2010-05-18 07:55:40 51°22.133 2°50.5 18.3928 0.06329 0.347356 -0.861272
2010-05-18 07:55:45 51°22.152 2°50.496 18.4017 0.06329 0.347356 -0.861272
2010-05-18 07:55:50 51°22.171 2°50.492 18.4002 0.06329 0.347356 -0.826448
2010-05-18 07:55:55 51°22.189 2°50.487 18.5308 0.063185 0.346779 -0.861272
2010-05-18 07:56:00 51°22.208 2°50.482 18.4316 0.06329 0.347368 -0.826448
2010-05-18 07:56:05 51°22.227 2°50.478 18.3344 0.063185 0.34679 -0.826448
2010-05-18 07:56:10 51°22.246 2°50.472 18.4305 0.06329 0.347384 -0.861272
2010-05-18 07:56:14 51°22.261 2°50.468 18.3946 0.06329 0.347384 -0.861272
2010-05-18 07:56:20 51°22.283 2°50.463 18.3355 0.063185 0.346818 -0.826448
2010-05-18 07:56:25 51°22.302 2°50.457 18.2331 0.063185 0.346818 -0.791624
2010-05-18 07:56:30 51°22.32 2°50.452 18.4795 0.063185 0.34683 -0.861272
2010-05-18 07:56:34 51°22.335 2°50.445 18.1829 0.063185 0.346841 -0.826448
2010-05-18 07:56:40 51°22.357 2°50.436 18.5026 0.06329 0.347418 -0.826448
2010-05-18 07:56:45 51°22.375 2°50.428 18.4011 0.06329 0.347418 -0.826448
2010-05-18 07:56:50 51°22.394 2°50.419 18.4032 0.063185 0.346835 -0.861272
2010-05-18 07:56:55 51°22.412 2°50.41 18.5132 0.063185 0.34683 -0.826448
2010-05-18 07:57:00 51°22.43 2°50.4 18.4874 0.063185 0.346841 -0.791624
2010-05-18 07:57:05 51°22.448 2°50.391 18.5205 0.063185 0.346824 -0.826448
2010-05-18 07:57:10 51°22.467 2°50.381 18.4879 0.063185 0.346835 -0.826448
2010-05-18 07:57:14 51°22.481 2°50.372 18.3835 0.063185 0.346835 -0.826448
2010-05-18 07:57:20 51°22.503 2°50.36 18.4493 0.06329 0.347424 -0.861272
2010-05-18 07:57:25 51°22.521 2°50.348 18.4554 0.063185 0.346846 -0.826448
2010-05-18 07:57:30 51°22.539 2°50.338 18.4739 0.063185 0.346858 -0.826448
2010-05-18 07:57:35 51°22.556 2°50.324 18.5034 0.063185 0.346886 -0.861272
2010-05-18 07:57:40 51°22.574 2°50.314 18.5187 0.063185 0.346886 -0.826448
2010-05-18 07:57:45 51°22.592 2°50.3 18.4807 0.063185 0.346886 -0.826448
2010-05-18 07:57:50 51°22.61 2°50.289 18.4103 0.063185 0.346908 -0.826448
2010-05-18 07:57:55 51°22.627 2°50.276 18.4695 0.063186 0.346919 -0.861272
2010-05-18 07:58:00 51°22.644 2°50.263 18.4531 0.063186 0.346925 -0.861272
2010-05-18 07:58:05 51°22.662 2°50.249 18.4312 0.063186 0.346942 -0.861272
2010-05-18 07:58:10 51°22.679 2°50.235 18.5565 0.063186 0.346942 -0.826448
2010-05-18 07:58:14 51°22.692 2°50.223 18.3778 0.063186 0.346942 -0.826448
2010-05-18 07:58:20 51°22.713 2°50.207 18.5341 0.063186 0.346948 -0.826448
2010-05-18 07:58:25 51°22.73 2°50.191 18.5062 0.063186 0.346953 -0.791624
2010-05-18 07:58:30 51°22.747 2°50.178 18.474 0.063186 0.346953 -0.861272
2010-05-18 07:58:34 51°22.76 2°50.165 18.5785 0.063186 0.34697 -0.861272
2010-05-18 07:58:40 51°22.781 2°50.148 18.4288 0.063186 0.346964 -0.826448
2010-05-18 07:58:45 51°22.797 2°50.133 18.6592 0.063186 0.346964 -0.826448
2010-05-18 07:58:50 51°22.814 2°50.118 18.4496 0.063186 0.346976 -0.826448
2010-05-18 07:58:55 51°22.831 2°50.105 18.5995 0.063186 0.34697 -0.861272
2010-05-18 07:59:00 51°22.848 2°50.089 18.5192 0.063186 0.346993 -0.826448
2010-05-18 07:59:05 51°22.865 2°50.076 18.5149 0.063186 0.346987 -0.896096
2010-05-18 07:59:10 51°22.882 2°50.061 18.5264 0.063186 0.346993 -0.861272
2010-05-18 07:59:14 51°22.896 2°50.051 18.5384 0.063186 0.346993 -0.861272
2010-05-18 07:59:20 51°22.916 2°50.033 18.2494 0.063186 0.346993 -0.826448
2010-05-18 07:59:25 51°22.932 2°50.019 18.8401 0.063186 0.346987 -0.861272
2010-05-18 07:59:30 51°22.949 2°50.002 18.4939 0.063186 0.347009 -0.861272
2010-05-18 07:59:34 51°22.964 2°49.995 18.5157 0.063186 0.346987 -0.861272
2010-05-18 07:59:40 51°22.982 2°49.974 18.6772 0.063186 0.347032 -0.826448
2010-05-18 07:59:45 51°23 2°49.962 18.3505 0.063186 0.347032 -0.826448
2010-05-18 07:59:50 51°23.016 2°49.946 18.4594 0.063186 0.347021 -0.861272
2010-05-18 07:59:55 51°23.033 2°49.933 18.5352 0.063186 0.347054 -0.861272
2010-05-18 08:00:00 51°23.049 2°49.917 18.6729 0.063186 0.347066 -0.826448
2010-05-18 08:00:05 51°23.067 2°49.904 18.2551 0.063186 0.347066 -0.826448
2010-05-18 08:00:10 51°23.083 2°49.889 18.6828 0.063186 0.347088 -0.826448
2010-05-18 08:00:15 51°23.099 2°49.874 18.4698 0.063186 0.347088 -0.826448
2010-05-18 08:00:20 51°23.117 2°49.86 18.5527 0.063186 0.347083 -0.861272
2010-05-18 08:00:25 51°23.133 2°49.846 18.4866 0.063186 0.347088 -0.861272
2010-05-18 08:00:30 51°23.15 2°49.832 18.514 0.063186 0.347083 -0.826448
2010-05-18 08:00:35 51°23.167 2°49.817 18.4767 0.063186 0.347083 -0.861272
2010-05-18 08:00:40 51°23.184 2°49.803 18.5881 0.063186 0.347077 -0.861272
2010-05-18 08:00:45 51°23.201 2°49.789 18.5333 0.063186 0.347077 -0.861272
2010-05-18 08:00:50 51°23.218 2°49.775 18.4681 0.063186 0.347088 -0.861272
2010-05-18 08:00:54 51°23.231 2°49.764 18.5982 0.063186 0.347088 -0.826448
2010-05-18 08:01:00 51°23.251 2°49.748 18.5121 0.063186 0.347094 -0.826448
2010-05-18 08:01:05 51°23.269 2°49.734 18.5022 0.063186 0.347105 -0.861272
2010-05-18 08:01:10 51°23.286 2°49.72 18.4949 0.063186 0.347111 -0.826448
2010-05-18 08:01:14 51°23.299 2°49.709 18.5262 0.063186 0.347111 -0.826448
2010-05-18 08:01:20 51°23.319 2°49.692 18.5299 0.063186 0.347122 -0.826448
2010-05-18 08:01:25 51°23.337 2°49.678 18.5162 0.063186 0.347128 -0.861272
2010-05-18 08:01:30 51°23.354 2°49.664 18.6084 0.063186 0.347133 -0.826448
2010-05-18 08:01:34 51°23.367 2°49.653 18.5623 0.063186 0.347144 -0.826448
2010-05-18 08:01:40 51°23.388 2°49.637 18.5307 0.063186 0.34715 -0.861272
2010-05-18 08:01:45 51°23.405 2°49.623 18.5668 0.063186 0.34715 -0.861272
2010-05-18 08:01:50 51°23.422 2°49.609 18.5654 0.063186 0.347144 -0.826448
2010-05-18 08:01:54 51°23.436 2°49.598 18.5181 0.063186 0.347156 -0.861272
2010-05-18 08:02:00 51°23.456 2°49.582 18.524 0.063186 0.347156 -0.861272
2010-05-18 08:02:05 51°23.473 2°49.568 18.5592 0.063186 0.347161 -0.826448
2010-05-18 08:02:10 51°23.49 2°49.554 18.488 0.063186 0.347173 -0.896096
2010-05-18 08:02:14 51°23.504 2°49.543 18.6386 0.063186 0.347173 -0.896096
2010-05-18 08:02:20 51°23.524 2°49.527 18.5388 0.063186 0.347178 -0.861272
2010-05-18 08:02:25 51°23.541 2°49.513 18.6137 0.063186 0.347178 -0.826448
2010-05-18 08:02:30 51°23.558 2°49.499 18.5525 0.063186 0.347195 -0.861272
2010-05-18 08:02:35 51°23.575 2°49.484 18.6044 0.063186 0.347206 -0.861272
2010-05-18 08:02:40 51°23.592 2°49.47 18.5561 0.063186 0.347206 -0.861272
2010-05-18 08:02:45 51°23.609 2°49.457 18.5931 0.063186 0.347206 -0.861272
2010-05-18 08:02:50 51°23.626 2°49.442 18.5573 0.063186 0.347212 -0.861272
2010-05-18 08:02:55 51°23.643 2°49.429 18.5833 0.063186 0.347223 -0.826448
2010-05-18 08:03:00 51°23.66 2°49.415 18.5868 0.063186 0.347223 -0.826448
2010-05-18 08:03:05 51°23.677 2°49.401 18.5639 0.063186 0.34724 -0.861272
2010-05-18 08:03:10 51°23.694 2°49.387 18.6391 0.063186 0.347246 -0.826448
2010-05-18 08:03:14 51°23.708 2°49.376 18.5609 0.063186 0.347246 -0.826448
2010-05-18 08:03:20 51°23.728 2°49.36 18.5561 0.063186 0.34724 -0.861272
2010-05-18 08:03:25 51°23.745 2°49.346 18.598 0.063186 0.347246 -0.826448
2010-05-18 08:03:30 51°23.762 2°49.332 18.6446 0.063186 0.347251 -0.826448
2010-05-18 08:03:34 51°23.776 2°49.321 18.6039 0.063186 0.347263 -0.826448
2010-05-18 08:03:40 51°23.796 2°49.304 18.6335 0.063186 0.347268 -0.826448
2010-05-18 08:03:45 51°23.813 2°49.29 18.5936 0.063186 0.347268 -0.826448
2010-05-18 08:03:50 51°23.83 2°49.277 18.5741 0.063186 0.34728 -0.896096
2010-05-18 08:03:54 51°23.844 2°49.266 18.6273 0.063186 0.34728 -0.861272
2010-05-18 08:04:00 51°23.864 2°49.249 18.6006 0.063186 0.347297 -0.861272
2010-05-18 08:04:05 51°23.881 2°49.235 18.5694 0.063186 0.347302 -0.861272
2010-05-18 08:04:10 51°23.898 2°49.221 18.6207 0.063186 0.347302 -0.861272
2010-05-18 08:04:14 51°23.912 2°49.21 18.605 0.063186 0.347302 -0.861272
2010-05-18 08:04:20 51°23.932 2°49.194 18.6607 0.063186 0.347313 -0.826448
2010-05-18 08:04:25 51°23.949 2°49.18 18.6238 0.063186 0.347313 -0.826448
2010-05-18 08:04:30 51°23.966 2°49.166 18.6321 0.063186 0.347325 -0.861272
2010-05-18 08:04:35 51°23.983 2°49.152 18.6038 0.063186 0.34733 -0.861272
2010-05-18 08:04:40 51°24 2°49.138 18.6167 0.063186 0.347347 -0.861272
2010-05-18 08:04:45 51°24.017 2°49.124 18.6073 0.063186 0.347347 -0.861272
2010-05-18 08:04:50 51°24.034 2°49.11 18.6267 0.063186 0.347347 -0.826448
2010-05-18 08:04:55 51°24.051 2°49.096 18.6288 0.063186 0.347359 -0.826448
2010-05-18 08:05:00 51°24.068 2°49.082 18.6504 0.063186 0.347364 -0.826448
2010-05-18 08:05:05 51°24.084 2°49.068 18.6895 0.063186 0.34737 -0.826448
2010-05-18 08:05:10 51°24.102 2°49.054 18.6022 0.063186 0.347381 -0.826448
2010-05-18 08:05:14 51°24.115 2°49.043 18.6383 0.063186 0.347381 -0.826448
2010-05-18 08:05:20 51°24.136 2°49.027 18.6442 0.063186 0.347387 -0.861272
2010-05-18 08:05:25 51°24.153 2°49.013 18.6473 0.063186 0.347392 -0.861272
2010-05-18 08:05:30 51°24.17 2°48.999 18.6428 0.063186 0.347398 -0.826448
2010-05-18 08:05:34 51°24.183 2°48.988 18.6378 0.063186 0.347404 -0.861272
2010-05-18 08:05:40 51°24.204 2°48.971 18.6852 0.063081 0.346825 -0.861272
2010-05-18 08:05:45 51°24.221 2°48.957 18.6697 0.063081 0.346825 -0.861272
2010-05-18 08:05:50 51°24.238 2°48.943 18.6718 0.063186 0.347421 -0.826448
2010-05-18 08:05:54 51°24.251 2°48.932 18.7046 0.063186 0.347432 -0.861272
2010-05-18 08:06:00 51°24.272 2°48.916 18.6982 0.063186 0.347432 -0.826448
2010-05-18 08:06:05 51°24.289 2°48.902 18.6595 0.063081 0.346853 -0.826448
2010-05-18 08:06:10 51°24.306 2°48.888 18.6343 0.063186 0.347449 -0.896096
2010-05-18 08:06:14 51°24.32 2°48.878 18.6324 0.063186 0.347449 -0.896096
2010-05-18 08:06:20 51°24.34 2°48.861 18.6949 0.063186 0.347454 -0.861272
2010-05-18 08:06:25 51°24.357 2°48.847 18.6806 0.063081 0.346882 -0.826448
2010-05-18 08:06:30 51°24.374 2°48.833 18.6479 0.063081 0.346882 -0.861272
2010-05-18 08:06:35 51°24.391 2°48.819 18.6673 0.063186 0.347477 -0.861272
2010-05-18 08:06:40 51°24.408 2°48.805 18.6841 0.063186 0.347488 -0.861272
2010-05-18 08:06:45 51°24.425 2°48.791 18.6772 0.063186 0.347488 -0.861272
2010-05-18 08:06:50 51°24.442 2°48.776 18.6683 0.063186 0.347494 -0.861272
2010-05-18 08:06:55 51°24.459 2°48.762 18.6768 0.063081 0.346915 -0.861272
2010-05-18 08:07:00 51°24.476 2°48.748 18.6376 0.063081 0.346915 -0.861272
2010-05-18 08:07:05 51°24.493 2°48.734 18.7438 0.063186 0.347517 -0.861272
2010-05-18 08:07:10 51°24.51 2°48.72 18.7253 0.063186 0.347528 -0.861272
2010-05-18 08:07:14 51°24.524 2°48.709 18.714 0.063186 0.347528 -0.861272
2010-05-18 08:07:20 51°24.544 2°48.692 18.6804 0.063081 0.346938 -0.826448
2010-05-18 08:07:25 51°24.561 2°48.679 18.6841 0.063081 0.346949 -0.861272
2010-05-18 08:07:30 51°24.578 2°48.665 18.6638 0.063081 0.346949 -0.861272
2010-05-18 08:07:34 51°24.592 2°48.654 18.6996 0.063081 0.346955 -0.861272
2010-05-18 08:07:40 51°24.613 2°48.637 18.7022 0.063186 0.347545 -0.896096
2010-05-18 08:07:45 51°24.63 2°48.623 18.6989 0.063186 0.347545 -0.896096
2010-05-18 08:07:50 51°24.647 2°48.609 18.6963 0.063081 0.346966 -0.826448
2010-05-18 08:07:55 51°24.664 2°48.595 18.7382 0.063186 0.347562 -0.861272
2010-05-18 08:08:00 51°24.681 2°48.582 18.7032 0.063081 0.346977 -0.826448
2010-05-18 08:08:05 51°24.698 2°48.568 18.7362 0.063081 0.346983 -0.826448
2010-05-18 08:08:10 51°24.715 2°48.554 18.7086 0.063081 0.346989 -0.826448
2010-05-18 08:08:14 51°24.729 2°48.543 18.689 0.063081 0.346989 -0.826448
2010-05-18 08:08:20 51°24.749 2°48.526 18.7298 0.063186 0.34759 -0.826448
2010-05-18 08:08:25 51°24.766 2°48.513 18.7505 0.063081 0.347011 -0.861272
2010-05-18 08:08:30 51°24.784 2°48.499 18.7 0.063081 0.347011 -0.861272
2010-05-18 08:08:34 51°24.797 2°48.488 18.7442 0.063081 0.347022 -0.826448
2010-05-18 08:08:40 51°24.818 2°48.472 18.6972 0.063081 0.347028 -0.861272
2010-05-18 08:08:45 51°24.835 2°48.458 18.7239 0.063081 0.347028 -0.861272
2010-05-18 08:08:50 51°24.852 2°48.444 18.7262 0.063081 0.347034 -0.861272
2010-05-18 08:08:55 51°24.87 2°48.431 18.7207 0.063081 0.347051 -0.826448
2010-05-18 08:09:00 51°24.887 2°48.417 18.7144 0.063081 0.347056 -0.826448
2010-05-18 08:09:05 51°24.904 2°48.403 18.7107 0.063081 0.347062 -0.861272
2010-05-18 08:09:10 51°24.921 2°48.39 18.7346 0.063081 0.347068 -0.826448
2010-05-18 08:09:14 51°24.935 2°48.378 18.72 0.063081 0.347068 -0.826448
2010-05-18 08:09:20 51°24.956 2°48.362 18.815 0.063081 0.347085 -0.826448
2010-05-18 08:09:25 51°24.973 2°48.348 18.8563 0.063081 0.34709 -0.861272
2010-05-18 08:09:30 51°24.99 2°48.335 18.8537 0.063081 0.347096 -0.861272
2010-05-18 08:09:34 51°25.004 2°48.328 18.8061 0.063081 0.34709 -0.896096
2010-05-18 08:09:40 51°25.026 2°48.317 18.8232 0.063081 0.347101 -0.861272
2010-05-18 08:09:45 51°25.044 2°48.309 18.7469 0.063081 0.347101 -0.861272
2010-05-18 08:09:50 51°25.063 2°48.303 18.8481 0.063081 0.347101 -0.861272
2010-05-18 08:09:55 51°25.081 2°48.298 18.7689 0.063081 0.347118 -0.861272
2010-05-18 08:10:00 51°25.1 2°48.293 18.8185 0.063081 0.347118 -0.826448
2010-05-18 08:10:05 51°25.118 2°48.289 18.7635 0.063081 0.347135 -0.861272
2010-05-18 08:10:10 51°25.137 2°48.286 18.7664 0.063081 0.347147 -0.826448
2010-05-18 08:10:14 51°25.152 2°48.283 18.7719 0.063081 0.347147 -0.826448
2010-05-18 08:10:20 51°25.174 2°48.281 18.763 0.063081 0.347158 -0.826448
2010-05-18 08:10:25 51°25.193 2°48.278 18.7647 0.063081 0.347158 -0.861272
2010-05-18 08:10:30 51°25.212 2°48.276 18.7613 0.063081 0.347163 -0.826448
2010-05-18 08:10:34 51°25.227 2°48.274 18.7529 0.063081 0.347175 -0.896096
2010-05-18 08:10:40 51°25.249 2°48.273 18.7858 0.063081 0.347175 -0.861272
2010-05-18 08:10:45 51°25.268 2°48.27 18.7694 0.063081 0.347175 -0.861272
2010-05-18 08:10:50 51°25.287 2°48.269 18.773 0.063081 0.347192 -0.861272
2010-05-18 08:10:55 51°25.305 2°48.267 18.7939 0.063081 0.347192 -0.826448
2010-05-18 08:11:00 51°25.324 2°48.264 18.7449 0.063081 0.347203 -0.861272
2010-05-18 08:11:05 51°25.343 2°48.262 18.8015 0.063081 0.347209 -0.861272
2010-05-18 08:11:10 51°25.361 2°48.26 18.7767 0.063081 0.347214 -0.861272
2010-05-18 08:11:15 51°25.38 2°48.258 18.8168 0.063081 0.347214 -0.861272
2010-05-18 08:11:20 51°25.399 2°48.255 18.7783 0.063081 0.34722 -0.861272
2010-05-18 08:11:25 51°25.417 2°48.253 18.792 0.063081 0.347231 -0.861272
2010-05-18 08:11:30 51°25.436 2°48.251 18.763 0.063081 0.347237 -0.826448
2010-05-18 08:11:35 51°25.455 2°48.248 18.7992 0.063081 0.347248 -0.861272
2010-05-18 08:11:40 51°25.473 2°48.246 18.7771 0.063081 0.347254 -0.826448
2010-05-18 08:11:45 51°25.492 2°48.243 18.8342 0.063081 0.347254 -0.826448
2010-05-18 08:11:50 51°25.511 2°48.24 18.781 0.063081 0.347259 -0.861272
2010-05-18 08:11:54 51°25.526 2°48.238 18.7921 0.063081 0.347265 -0.896096
2010-05-18 08:12:00 51°25.548 2°48.235 18.8382 0.063081 0.347276 -0.861272
2010-05-18 08:12:05 51°25.567 2°48.231 18.795 0.063081 0.347282 -0.861272
2010-05-18 08:12:10 51°25.586 2°48.229 18.798 0.063081 0.347282 -0.861272
2010-05-18 08:12:14 51°25.601 2°48.226 18.8057 0.063081 0.347282 -0.861272
2010-05-18 08:12:20 51°25.623 2°48.223 18.7991 0.063081 0.347288 -0.861272
2010-05-18 08:12:25 51°25.641 2°48.219 18.8163 0.063081 0.347299 -0.896096
2010-05-18 08:12:30 51°25.66 2°48.217 18.7983 0.063081 0.34731 -0.861272
2010-05-18 08:12:34 51°25.675 2°48.214 18.8215 0.063081 0.347316 -0.826448
2010-05-18 08:12:40 51°25.697 2°48.21 18.7875 0.063081 0.347322 -0.861272
2010-05-18 08:12:45 51°25.716 2°48.207 18.847 0.063081 0.347322 -0.861272
2010-05-18 08:12:50 51°25.734 2°48.204 18.8122 0.063081 0.347327 -0.826448
2010-05-18 08:12:55 51°25.753 2°48.201 18.8603 0.063081 0.347339 -0.861272
2010-05-18 08:13:00 51°25.771 2°48.197 18.8062 0.063081 0.347339 -0.861272
2010-05-18 08:13:05 51°25.79 2°48.194 18.8022 0.063081 0.34735 -0.861272
2010-05-18 08:13:10 51°25.808 2°48.191 18.8141 0.063081 0.347355 -0.896096
2010-05-18 08:13:15 51°25.827 2°48.188 18.8185 0.063081 0.347355 -0.896096
2010-05-18 08:13:20 51°25.845 2°48.184 18.803 0.063081 0.347355 -0.826448
2010-05-18 08:13:25 51°25.864 2°48.181 18.832 0.063081 0.347367 -0.861272
2010-05-18 08:13:30 51°25.883 2°48.178 18.8013 0.063081 0.347372 -0.861272
2010-05-18 08:13:35 51°25.901 2°48.174 18.8274 0.063081 0.347384 -0.861272
2010-05-18 08:13:40 51°25.919 2°48.171 18.8217 0.063081 0.347389 -0.861272
2010-05-18 08:13:45 51°25.938 2°48.168 18.8218 0.063081 0.347389 -0.861272
2010-05-18 08:13:50 51°25.956 2°48.165 18.8327 0.063081 0.347395 -0.861272
2010-05-18 08:13:55 51°25.975 2°48.161 18.8324 0.063081 0.347401 -0.826448
2010-05-18 08:14:00 51°25.994 2°48.158 18.8505 0.063081 0.347412 -0.861272
2010-05-18 08:14:05 51°26.012 2°48.154 18.8408 0.063081 0.347412 -0.826448
2010-05-18 08:14:10 51°26.031 2°48.151 18.8243 0.063081 0.347423 -0.826448
2010-05-18 08:14:14 51°26.045 2°48.149 18.8521 0.063081 0.347423 -0.826448
2010-05-18 08:14:20 51°26.068 2°48.144 18.843 0.063081 0.347429 -0.791624
2010-05-18 08:14:25 51°26.086 2°48.141 18.8593 0.063081 0.347435 -0.826448
2010-05-18 08:14:30 51°26.105 2°48.138 18.8635 0.063081 0.347452 -0.826448
2010-05-18 08:14:34 51°26.12 2°48.135 18.8216 0.063081 0.347457 -0.826448
2010-05-18 08:14:40 51°26.142 2°48.131 18.8483 0.063081 0.347457 -0.826448
2010-05-18 08:14:45 51°26.16 2°48.127 18.8518 0.063081 0.347457 -0.826448
2010-05-18 08:14:50 51°26.179 2°48.124 18.8811 0.063081 0.347469 -0.826448
2010-05-18 08:14:55 51°26.198 2°48.12 18.8496 0.063081 0.34748 -0.861272
2010-05-18 08:15:00 51°26.216 2°48.117 18.8448 0.063081 0.34748 -0.826448
2010-05-18 08:15:05 51°26.235 2°48.114 18.8655 0.063081 0.347491 -0.826448
2010-05-18 08:15:10 51°26.254 2°48.111 18.852 0.063081 0.347502 -0.861272
2010-05-18 08:15:15 51°26.272 2°48.107 18.8382 0.063081 0.347502 -0.861272
2010-05-18 08:15:20 51°26.291 2°48.104 18.8525 0.063081 0.347514 -0.791624
2010-05-18 08:15:25 51°26.31 2°48.1 18.8784 0.063081 0.347514 -0.791624
2010-05-18 08:15:30 51°26.328 2°48.097 18.8836 0.063081 0.347525 -0.861272
2010-05-18 08:15:35 51°26.347 2°48.094 18.8684 0.063081 0.347531 -0.826448
2010-05-18 08:15:40 51°26.366 2°48.091 18.8508 0.063081 0.347536 -0.826448
2010-05-18 08:15:45 51°26.384 2°48.087 18.8894 0.063081 0.347536 -0.826448
2010-05-18 08:15:50 51°26.403 2°48.084 18.8642 0.063081 0.347548 -0.791624
2010-05-18 08:15:55 51°26.422 2°48.081 18.8979 0.063081 0.347553 -0.826448
2010-05-18 08:16:00 51°26.44 2°48.077 18.8742 0.063081 0.347559 -0.826448
2010-05-18 08:16:05 51°26.459 2°48.074 18.8899 0.063081 0.347565 -0.826448
2010-05-18 08:16:10 51°26.478 2°48.071 18.8726 0.063081 0.34757 -0.826448
2010-05-18 08:16:15 51°26.497 2°48.068 18.8735 0.063081 0.34757 -0.826448
2010-05-18 08:16:20 51°26.515 2°48.065 18.8728 0.063081 0.347582 -0.826448
2010-05-18 08:16:25 51°26.534 2°48.061 18.8863 0.063081 0.347593 -0.791624
2010-05-18 08:16:30 51°26.553 2°48.058 18.879 0.063081 0.347593 -0.826448
2010-05-18 08:16:34 51°26.568 2°48.056 18.9078 0.063081 0.347604 -0.826448
2010-05-18 08:16:40 51°26.59 2°48.052 18.8794 0.063081 0.34761 -0.861272
2010-05-18 08:16:45 51°26.609 2°48.049 18.8972 0.063081 0.34761 -0.861272
2010-05-18 08:16:50 51°26.627 2°48.046 18.9142 0.063081 0.347616 -0.861272
2010-05-18 08:16:55 51°26.646 2°48.042 18.8856 0.062977 0.347036 -0.826448
2010-05-18 08:17:00 51°26.665 2°48.039 18.8856 0.063081 0.347627 -0.861272
2010-05-18 08:17:05 51°26.683 2°48.036 18.9114 0.063081 0.347638 -0.861272
2010-05-18 08:17:10 51°26.702 2°48.033 18.9276 0.063081 0.347633 -0.861272
2010-05-18 08:17:14 51°26.717 2°48.031 18.8911 0.063081 0.347633 -0.861272
2010-05-18 08:17:20 51°26.739 2°48.028 18.8987 0.063081 0.347644 -0.861272
2010-05-18 08:17:25 51°26.758 2°48.025 18.8989 0.062977 0.347059 -0.861272
2010-05-18 08:17:30 51°26.776 2°48.021 18.9144 0.062977 0.347064 -0.861272
2010-05-18 08:17:35 51°26.795 2°48.018 18.9185 0.063081 0.347655 -0.826448
2010-05-18 08:17:40 51°26.814 2°48.015 18.9105 0.063081 0.347667 -0.826448
2010-05-18 08:17:45 51°26.832 2°48.012 18.9008 0.063081 0.347667 -0.826448
2010-05-18 08:17:50 51°26.851 2°48.009 18.9396 0.063081 0.347667 -0.861272
2010-05-18 08:17:55 51°26.87 2°48.006 18.9143 0.063081 0.347684 -0.826448
2010-05-18 08:18:00 51°26.889 2°48.004 18.9489 0.063081 0.347689 -0.826448
2010-05-18 08:18:05 51°26.907 2°48.001 18.9045 0.063081 0.347695 -0.791624
2010-05-18 08:18:10 51°26.926 2°47.998 18.916 0.063081 0.347712 -0.861272
2010-05-18 08:18:15 51°26.945 2°47.994 18.924 0.063081 0.347712 -0.861272
2010-05-18 08:18:20 51°26.963 2°47.992 18.9286 0.063081 0.347723 -0.826448
2010-05-18 08:18:25 51°26.982 2°47.989 18.9104 0.063081 0.347735 -0.861272
2010-05-18 08:18:30 51°27.001 2°47.986 18.9232 0.063081 0.347746 -0.896096
2010-05-18 08:18:34 51°27.016 2°47.984 18.9124 0.063081 0.347752 -0.861272
2010-05-18 08:18:40 51°27.038 2°47.981 18.9394 0.062977 0.347172 -0.861272
2010-05-18 08:18:45 51°27.057 2°47.978 18.928 0.062977 0.347172 -0.861272
2010-05-18 08:18:50 51°27.075 2°47.975 18.9452 0.062977 0.347177 -0.826448
2010-05-18 08:18:55 51°27.094 2°47.972 18.9377 0.063081 0.347774 -0.826448
2010-05-18 08:19:00 51°27.113 2°47.97 18.922 0.062977 0.347194 -0.826448
2010-05-18 08:19:05 51°27.132 2°47.967 18.9355 0.062977 0.3472 -0.826448
2010-05-18 08:19:10 51°27.15 2°47.965 18.927 0.062977 0.347217 -0.826448
2010-05-18 08:19:15 51°27.169 2°47.962 18.9281 0.062977 0.347217 -0.826448
2010-05-18 08:19:20 51°27.188 2°47.959 18.9407 0.062977 0.347206 -0.861272
2010-05-18 08:19:25 51°27.207 2°47.956 18.9396 0.062977 0.347217 -0.826448
2010-05-18 08:19:30 51°27.225 2°47.954 18.9368 0.062977 0.347223 -0.861272
2010-05-18 08:19:35 51°27.244 2°47.951 18.939 0.062977 0.347228 -0.861272
2010-05-18 08:19:40 51°27.263 2°47.949 18.9614 0.062977 0.347234 -0.861272
2010-05-18 08:19:45 51°27.282 2°47.946 18.9378 0.062977 0.347234 -0.861272
2010-05-18 08:19:50 51°27.301 2°47.943 18.9509 0.062977 0.347251 -0.861272
2010-05-18 08:19:55 51°27.319 2°47.94 18.9444 0.062977 0.347256 -0.791624
2010-05-18 08:20:00 51°27.338 2°47.938 18.9453 0.062977 0.347256 -0.826448
2010-05-18 08:20:05 51°27.357 2°47.935 18.9649 0.062977 0.347262 -0.826448
2010-05-18 08:20:10 51°27.376 2°47.933 18.9445 0.062977 0.347279 -0.861272
2010-05-18 08:20:15 51°27.394 2°47.93 18.9597 0.062977 0.347279 -0.861272
2010-05-18 08:20:20 51°27.413 2°47.927 18.9473 0.062977 0.347279 -0.826448
2010-05-18 08:20:25 51°27.432 2°47.924 18.9469 0.062977 0.347285 -0.861272
2010-05-18 08:20:30 51°27.45 2°47.921 18.9577 0.062977 0.347302 -0.861272
2010-05-18 08:20:35 51°27.469 2°47.917 18.9418 0.062977 0.347307 -0.826448
2010-05-18 08:20:40 51°27.487 2°47.913 18.984 0.062977 0.347313 -0.826448
2010-05-18 08:20:45 51°27.506 2°47.91 18.957 0.062977 0.347313 -0.826448
2010-05-18 08:20:50 51°27.524 2°47.906 18.9968 0.062977 0.347324 -0.861272
2010-05-18 08:20:55 51°27.543 2°47.903 18.9503 0.062977 0.34733 -0.861272
2010-05-18 08:21:00 51°27.561 2°47.9 18.9767 0.062977 0.347336 -0.861272
2010-05-18 08:21:05 51°27.579 2°47.896 18.9786 0.062977 0.347341 -0.861272
2010-05-18 08:21:10 51°27.598 2°47.893 18.9659 0.062977 0.347341 -0.826448
2010-05-18 08:21:14 51°27.612 2°47.891 18.9676 0.062977 0.347341 -0.826448
2010-05-18 08:21:20 51°27.635 2°47.887 18.9598 0.062977 0.347353 -0.861272
2010-05-18 08:21:25 51°27.653 2°47.884 18.9737 0.062977 0.347364 -0.826448
2010-05-18 08:21:30 51°27.672 2°47.88 18.9677 0.062977 0.34737 -0.826448
2010-05-18 08:21:34 51°27.686 2°47.878 18.9622 0.062977 0.347375 -0.861272
2010-05-18 08:21:40 51°27.708 2°47.874 18.9713 0.062977 0.347381 -0.861272
2010-05-18 08:21:45 51°27.727 2°47.871 18.9781 0.062977 0.347381 -0.861272
2010-05-18 08:21:50 51°27.745 2°47.868 18.9665 0.062977 0.347387 -0.861272
2010-05-18 08:21:55 51°27.764 2°47.865 18.9792 0.062977 0.347392 -0.861272
2010-05-18 08:22:00 51°27.782 2°47.861 18.9726 0.062977 0.347409 -0.826448
2010-05-18 08:22:05 51°27.801 2°47.858 18.9957 0.062977 0.347404 -0.826448
2010-05-18 08:22:10 51°27.819 2°47.855 18.9708 0.062977 0.347421 -0.861272
2010-05-18 08:22:14 51°27.834 2°47.853 19.0087 0.062977 0.347421 -0.861272
2010-05-18 08:22:20 51°27.856 2°47.849 18.9933 0.062977 0.347421 -0.826448
2010-05-18 08:22:25 51°27.874 2°47.846 18.9851 0.062977 0.347426 -0.861272
2010-05-18 08:22:30 51°27.893 2°47.843 18.9917 0.062977 0.347438 -0.861272
2010-05-18 08:22:35 51°27.911 2°47.84 18.9856 0.062977 0.347443 -0.861272
2010-05-18 08:22:40 51°27.929 2°47.837 18.9936 0.062977 0.347455 -0.826448
2010-05-18 08:22:45 51°27.948 2°47.834 18.9795 0.062977 0.347455 -0.826448
2010-05-18 08:22:50 51°27.966 2°47.831 19.0003 0.062977 0.347455 -0.826448
2010-05-18 08:22:54 51°27.981 2°47.828 18.9947 0.062977 0.347472 -0.861272
2010-05-18 08:23:00 51°28.003 2°47.825 18.9981 0.062977 0.347472 -0.826448
2010-05-18 08:23:05 51°28.022 2°47.822 18.9935 0.062977 0.347477 -0.861272
2010-05-18 08:23:10 51°28.04 2°47.819 19.015 0.062977 0.347494 -0.826448
2010-05-18 08:23:14 51°28.055 2°47.817 18.9972 0.062977 0.347494 -0.826448
2010-05-18 08:23:20 51°28.077 2°47.813 18.9972 0.062977 0.347494 -0.896096
2010-05-18 08:23:25 51°28.096 2°47.811 19.007 0.062977 0.3475 -0.861272
2010-05-18 08:23:30 51°28.114 2°47.807 18.9911 0.062977 0.347511 -0.861272
2010-05-18 08:23:34 51°28.129 2°47.805 19.02 0.062977 0.347517 -0.861272
2010-05-18 08:23:40 51°28.151 2°47.801 19.0157 0.062977 0.347528 -0.861272
2010-05-18 08:23:45 51°28.17 2°47.798 19.0024 0.062977 0.347528 -0.861272
2010-05-18 08:23:50 51°28.188 2°47.795 19.0017 0.062977 0.347528 -0.826448
2010-05-18 08:23:55 51°28.207 2°47.792 19.0365 0.062977 0.347534 -0.826448
2010-05-18 08:24:00 51°28.225 2°47.789 19.0099 0.062977 0.34754 -0.861272
2010-05-18 08:24:05 51°28.244 2°47.787 19.0074 0.062977 0.34754 -0.861272
2010-05-18 08:24:10 51°28.263 2°47.783 19.0237 0.062977 0.347557 -0.861272
2010-05-18 08:24:15 51°28.281 2°47.78 19.0073 0.062977 0.347557 -0.861272
2010-05-18 08:24:20 51°28.3 2°47.777 19.0203 0.062977 0.347562 -0.861272
2010-05-18 08:24:25 51°28.319 2°47.774 19.0247 0.062977 0.347568 -0.896096
2010-05-18 08:24:30 51°28.337 2°47.771 19.027 0.062977 0.347568 -0.896096
2010-05-18 08:24:35 51°28.356 2°47.768 19.0229 0.062977 0.347579 -0.896096
2010-05-18 08:24:40 51°28.374 2°47.765 19.0276 0.062977 0.347585 -0.861272
2010-05-18 08:24:45 51°28.393 2°47.762 19.0254 0.062977 0.347585 -0.861272
2010-05-18 08:24:50 51°28.412 2°47.759 19.0347 0.062977 0.347591 -0.861272
2010-05-18 08:24:55 51°28.43 2°47.756 19.0274 0.062977 0.347596 -0.826448
2010-05-18 08:25:00 51°28.449 2°47.754 19.0316 0.062977 0.347602 -0.861272
2010-05-18 08:25:05 51°28.467 2°47.75 19.0322 0.062977 0.347619 -0.861272
2010-05-18 08:25:10 51°28.486 2°47.748 19.022 0.062977 0.347619 -0.826448
2010-05-18 08:25:15 51°28.504 2°47.744 19.0348 0.062977 0.347619 -0.826448
2010-05-18 08:25:20 51°28.523 2°47.742 19.0258 0.062977 0.347631 -0.861272
2010-05-18 08:25:25 51°28.542 2°47.739 19.0419 0.062977 0.347636 -0.826448
2010-05-18 08:25:30 51°28.56 2°47.736 19.0269 0.062977 0.347636 -0.861272
2010-05-18 08:25:34 51°28.575 2°47.733 19.048 0.062977 0.347642 -0.826448
2010-05-18 08:25:40 51°28.597 2°47.729 19.0373 0.062977 0.347659 -0.826448
2010-05-18 08:25:45 51°28.616 2°47.727 19.0515 0.062977 0.347659 -0.826448
2010-05-18 08:25:50 51°28.634 2°47.723 19.0414 0.062977 0.347653 -0.861272
2010-05-18 08:25:55 51°28.653 2°47.721 19.0386 0.062977 0.347659 -0.861272
2010-05-18 08:26:00 51°28.671 2°47.717 19.0574 0.062977 0.347665 -0.826448
2010-05-18 08:26:05 51°28.69 2°47.715 19.037 0.062977 0.347659 -0.896096
2010-05-18 08:26:10 51°28.708 2°47.711 19.0419 0.062977 0.347665 -0.861272
2010-05-18 08:26:14 51°28.723 2°47.709 19.0424 0.062977 0.347665 -0.861272
2010-05-18 08:26:20 51°28.745 2°47.705 19.0572 0.062977 0.347665 -0.861272
2010-05-18 08:26:25 51°28.764 2°47.703 19.0548 0.062977 0.347676 -0.861272
2010-05-18 08:26:46 51°28.842 2°47.691 19.0475 0.062977 0.347727 -0.861272
2010-05-18 08:27:16 51°28.953 2°47.673 19.0528 0.062977 0.347767 -0.861272
2010-05-18 08:27:35 51°29.023 2°47.661 19.0718 0.062977 0.347784 -0.826448
2010-05-18 08:29:04 51°29.354 2°47.611 19.0542 0.062977 0.347818 -0.861272
2010-05-18 08:29:18 51°29.406 2°47.604 19.065 0.062977 0.34788 -0.826448
2010-05-18 08:29:23 51°29.425 2°47.601 19.0774 0.062873 0.347299 -0.826448
2010-05-18 08:29:28 51°29.443 2°47.598 19.0732 0.062977 0.347892 -0.826448
2010-05-18 08:29:33 51°29.461 2°47.596 19.0716 0.062977 0.347892 -0.826448
2010-05-18 08:29:38 51°29.48 2°47.593 19.0771 0.062977 0.347903 -0.826448
2010-05-18 08:29:42 51°29.495 2°47.591 19.0836 0.062977 0.347909 -0.861272
2010-05-18 08:29:48 51°29.517 2°47.588 19.0796 0.062873 0.347322 -0.861272
2010-05-18 08:29:53 51°29.536 2°47.586 19.0855 0.062977 0.347914 -0.826448
2010-05-18 08:29:58 51°29.554 2°47.583 19.0811 0.062873 0.347339 -0.861272
2010-05-18 08:30:03 51°29.573 2°47.58 19.0985 0.062873 0.347339 -0.861272
2010-05-18 08:30:08 51°29.591 2°47.576 19.1071 0.062977 0.347943 -0.826448
2010-05-18 08:30:13 51°29.61 2°47.574 19.1022 0.062873 0.34735 -0.861272
2010-05-18 08:30:18 51°29.628 2°47.569 19.0912 0.062873 0.347356 -0.826448
2010-05-18 08:30:22 51°29.643 2°47.567 19.1 0.062873 0.347367 -0.861272
2010-05-18 08:30:28 51°29.665 2°47.561 19.0971 0.062873 0.347367 -0.861272
2010-05-18 08:30:33 51°29.683 2°47.559 19.1064 0.062873 0.347367 -0.861272
2010-05-18 08:30:38 51°29.702 2°47.555 19.111 0.062873 0.347379 -0.861272
2010-05-18 08:30:42 51°29.717 2°47.552 19.1132 0.062873 0.347379 -0.861272
2010-05-18 08:30:48 51°29.739 2°47.548 19.1081 0.062873 0.34739 -0.826448
2010-05-18 08:30:53 51°29.758 2°47.545 19.1137 0.062873 0.34739 -0.861272
2010-05-18 08:30:58 51°29.776 2°47.541 19.1126 0.062873 0.347401 -0.861272
2010-05-18 08:31:03 51°29.795 2°47.538 19.1096 0.062873 0.347401 -0.861272
2010-05-18 08:31:08 51°29.813 2°47.534 19.1182 0.062977 0.348 -0.861272
2010-05-18 08:31:13 51°29.832 2°47.531 19.1165 0.062873 0.347418 -0.861272
2010-05-18 08:31:18 51°29.85 2°47.527 19.1198 0.062873 0.347424 -0.826448
2010-05-18 08:31:22 51°29.865 2°47.524 19.1204 0.062873 0.34743 -0.861272
2010-05-18 08:31:28 51°29.888 2°47.52 19.1294 0.062873 0.347441 -0.861272
2010-05-18 08:31:33 51°29.906 2°47.517 19.1185 0.062873 0.347441 -0.861272
2010-05-18 08:31:38 51°29.925 2°47.514 19.1348 0.062873 0.347447 -0.861272
2010-05-18 08:31:42 51°29.939 2°47.51 19.1237 0.062873 0.347453 -0.826448
2010-05-18 08:31:48 51°29.962 2°47.507 19.1248 0.062873 0.347453 -0.861272
2010-05-18 08:31:53 51°29.98 2°47.503 19.124 0.062873 0.34747 -0.826448
2010-05-18 08:31:58 51°29.999 2°47.5 19.1335 0.062873 0.34747 -0.861272
2010-05-18 08:32:02 51°30.013 2°47.497 19.1229 0.062873 0.34747 -0.861272
2010-05-18 08:32:08 51°30.036 2°47.493 19.1306 0.062873 0.347475 -0.826448
2010-05-18 08:32:13 51°30.054 2°47.489 19.127 0.062873 0.347487 -0.861272
2010-05-18 08:32:18 51°30.072 2°47.486 19.1339 0.062873 0.347492 -0.896096
2010-05-18 08:32:22 51°30.087 2°47.483 19.133 0.062873 0.347498 -0.861272
2010-05-18 08:32:28 51°30.109 2°47.48 19.1276 0.062873 0.347498 -0.861272
2010-05-18 08:32:33 51°30.128 2°47.475 19.1308 0.062873 0.347498 -0.861272
2010-05-18 08:32:38 51°30.146 2°47.472 19.1337 0.062873 0.347509 -0.826448
2010-05-18 08:32:42 51°30.161 2°47.468 19.1457 0.062873 0.347521 -0.861272
2010-05-18 08:32:48 51°30.183 2°47.463 19.1398 0.062873 0.347515 -0.861272
2010-05-18 08:32:53 51°30.201 2°47.459 19.1361 0.062873 0.347526 -0.861272
2010-05-18 08:32:58 51°30.219 2°47.455 19.1471 0.062873 0.347532 -0.861272
2010-05-18 08:33:03 51°30.237 2°47.451 19.1434 0.062873 0.347532 -0.861272
2010-05-18 08:33:08 51°30.256 2°47.448 19.1451 0.062873 0.347538 -0.826448
2010-05-18 08:33:13 51°30.274 2°47.444 19.1458 0.062873 0.347543 -0.861272
2010-05-18 08:33:18 51°30.292 2°47.44 19.139 0.062873 0.347549 -0.861272
2010-05-18 08:33:23 51°30.31 2°47.436 19.1491 0.062873 0.347566 -0.861272
2010-05-18 08:33:28 51°30.328 2°47.433 19.1458 0.062873 0.34756 -0.826448
2010-05-18 08:33:33 51°30.346 2°47.428 19.1462 0.062873 0.34756 -0.826448
2010-05-18 08:33:38 51°30.364 2°47.425 19.1579 0.062873 0.347578 -0.861272
2010-05-18 08:33:42 51°30.378 2°47.421 19.1487 0.062873 0.347578 -0.826448
2010-05-18 08:33:48 51°30.4 2°47.417 19.1519 0.062873 0.347578 -0.861272
2010-05-18 08:33:53 51°30.418 2°47.414 19.1472 0.062873 0.347589 -0.861272
2010-05-18 08:33:58 51°30.436 2°47.41 19.1581 0.062873 0.347595 -0.826448
2010-05-18 08:34:02 51°30.45 2°47.407 19.1491 0.062873 0.347595 -0.826448
2010-05-18 08:34:08 51°30.472 2°47.403 19.1706 0.062873 0.3476 -0.861272
2010-05-18 08:34:13 51°30.49 2°47.398 19.1497 0.062873 0.347617 -0.861272
2010-05-18 08:34:18 51°30.508 2°47.395 19.166 0.062873 0.347612 -0.861272
2010-05-18 08:34:23 51°30.525 2°47.391 19.1554 0.062873 0.347623 -0.826448
2010-05-18 08:34:28 51°30.544 2°47.388 19.1706 0.062873 0.347629 -0.861272
2010-05-18 08:34:33 51°30.561 2°47.383 19.1613 0.062873 0.347629 -0.861272
2010-05-18 08:34:38 51°30.579 2°47.38 19.1632 0.062873 0.347634 -0.861272
2010-05-18 08:34:43 51°30.597 2°47.376 19.1651 0.062873 0.347646 -0.826448
2010-05-18 08:34:48 51°30.615 2°47.372 19.1625 0.062873 0.347646 -0.861272
2010-05-18 08:34:53 51°30.633 2°47.369 19.1629 0.062873 0.347651 -0.826448
2010-05-18 08:34:58 51°30.651 2°47.365 19.1694 0.062873 0.347663 -0.861272
2010-05-18 08:35:02 51°30.666 2°47.362 19.1641 0.062873 0.347663 -0.861272
2010-05-18 08:35:08 51°30.687 2°47.358 19.167 0.062873 0.347663 -0.826448
2010-05-18 08:35:13 51°30.705 2°47.354 19.1663 0.062873 0.347674 -0.861272
2010-05-18 08:35:18 51°30.724 2°47.35 19.1696 0.062873 0.34768 -0.861272
2010-05-18 08:35:22 51°30.738 2°47.347 19.1683 0.062873 0.347686 -0.896096
2010-05-18 08:35:28 51°30.76 2°47.343 19.1682 0.062873 0.347686 -0.861272
2010-05-18 08:35:33 51°30.778 2°47.339 19.176 0.062873 0.347686 -0.861272
2010-05-18 08:35:38 51°30.796 2°47.335 19.1699 0.062873 0.347703 -0.861272
2010-05-18 08:35:43 51°30.814 2°47.331 19.179 0.062873 0.347703 -0.861272
2010-05-18 08:35:48 51°30.832 2°47.327 19.1767 0.062873 0.347714 -0.826448
2010-05-18 08:35:53 51°30.85 2°47.323 19.1768 0.062873 0.347708 -0.791624
2010-05-18 08:35:58 51°30.868 2°47.32 19.1797 0.062873 0.347714 -0.826448
2010-05-18 08:36:02 51°30.882 2°47.316 19.1773 0.062873 0.347714 -0.826448
2010-05-18 08:36:08 51°30.904 2°47.313 19.1783 0.062873 0.347714 -0.861272
2010-05-18 08:36:13 51°30.922 2°47.309 19.1797 0.062873 0.347725 -0.861272